Wetterdaten: aktuell Sonntag, 24.06.2018 20:30
Datum Zeit Temp. A. Feuchte A. Luftdruck Regen Wind Richtung Richtung Taupunkt Windchill
24.06.2018 20:30 15,8 C 71 % 1015,6 hPa 0,0 mm 5,2 km/h S-SW 196 10,6 C 15,8 C
24.06.2018 20:29 15,9 C 70 % 1015,6 hPa 0,0 mm 5,2 km/h S-SW 193 10,4 C 15,9 C
24.06.2018 20:28 15,9 C 70 % 1015,7 hPa 0,0 mm 0,0 km/h O-SO 122 10,4 C 15,9 C
24.06.2018 20:27 16,1 C 69 % 1015,7 hPa 0,0 mm 0,0 km/h O-SO 122 10,4 C 16,1 C
24.06.2018 20:26 16,1 C 69 % 1015,7 hPa 0,0 mm 0,0 km/h O-SO 122 10,4 C 16,1 C
24.06.2018 20:25 16,2 C 68 % 1015,7 hPa 0,0 mm 0,0 km/h O-SO 122 10,3 C 16,2 C
24.06.2018 20:24 16,2 C 68 % 1015,7 hPa 0,0 mm 0,1 km/h O-SO 122 10,3 C 16,2 C
24.06.2018 20:23 16,3 C 67 % 1015,7 hPa 0,0 mm 1,1 km/h O-SO 122 10,2 C 16,3 C
24.06.2018 20:22 16,3 C 66 % 1015,7 hPa 0,0 mm 0,0 km/h O-SO 120 9,9 C 16,3 C
24.06.2018 20:21 16,4 C 66 % 1015,7 hPa 0,0 mm 0,0 km/h O-SO 120 10,0 C 16,4 C
24.06.2018 20:20 16,4 C 66 % 1015,7 hPa 0,0 mm 0,0 km/h O-SO 120 10,0 C 16,4 C
24.06.2018 20:19 16,4 C 65 % 1015,7 hPa 0,0 mm 0,0 km/h O-SO 120 9,8 C 16,4 C
24.06.2018 20:18 16,4 C 65 % 1015,7 hPa 0,0 mm 0,0 km/h O-SO 120 9,8 C 16,4 C
24.06.2018 20:17 16,4 C 63 % 1015,7 hPa 0,0 mm 0,0 km/h O-SO 120 9,3 C 16,4 C
24.06.2018 20:16 16,4 C 62 % 1015,7 hPa 0,0 mm 0,0 km/h O-SO 120 9,1 C 16,4 C
24.06.2018 20:15 16,4 C 62 % 1015,7 hPa 0,0 mm 0,0 km/h O-SO 120 9,1 C 16,4 C
24.06.2018 20:14 16,4 C 63 % 1015,7 hPa 0,0 mm 0,0 km/h O-SO 120 9,3 C 16,4 C
24.06.2018 20:13 16,4 C 63 % 1015,7 hPa 0,0 mm 0,0 km/h O-SO 120 9,3 C 16,4 C
24.06.2018 20:12 16,4 C 61 % 1015,8 hPa 0,0 mm 0,1 km/h O-SO 120 8,9 C 16,4 C
24.06.2018 20:11 16,4 C 61 % 1015,7 hPa 0,0 mm 0,0 km/h O-SO 120 8,9 C 16,4 C
24.06.2018 20:10 16,4 C 61 % 1015,7 hPa 0,0 mm 0,0 km/h O-SO 120 8,9 C 16,4 C
24.06.2018 20:09 16,4 C 61 % 1015,7 hPa 0,0 mm 0,0 km/h O-SO 120 8,9 C 16,4 C
24.06.2018 20:08 16,4 C 61 % 1015,8 hPa 0,0 mm 0,0 km/h O-SO 120 8,9 C 16,4 C
24.06.2018 20:07 16,4 C 60 % 1015,8 hPa 0,0 mm 0,0 km/h O-SO 120 8,6 C 16,4 C
24.06.2018 20:06 16,4 C 60 % 1015,8 hPa 0,0 mm 0,0 km/h O-SO 120 8,6 C 16,4 C
24.06.2018 20:05 16,4 C 60 % 1015,8 hPa 0,0 mm 0,3 km/h W-SW 250 8,6 C 16,4 C
24.06.2018 20:04 16,4 C 63 % 1015,8 hPa 0,0 mm 0,7 km/h W-SW 250 9,3 C 16,4 C
24.06.2018 20:03 16,5 C 63 % 1015,8 hPa 0,0 mm 5,3 km/h W-SW 248 9,4 C 16,5 C
24.06.2018 20:02 16,5 C 64 % 1015,8 hPa 0,0 mm 2,9 km/h W-NW 286 9,7 C 16,5 C
24.06.2018 20:01 16,6 C 65 % 1015,8 hPa 0,0 mm 2,5 km/h W-NW 287 10,0 C 16,6 C
24.06.2018 20:00 16,7 C 67 % 1015,8 hPa 0,0 mm 2,3 km/h W 267 10,5 C 16,7 C
24.06.2018 19:59 16,7 C 66 % 1015,8 hPa 0,0 mm 3,0 km/h W-SW 253 10,3 C 16,7 C
24.06.2018 19:58 16,8 C 65 % 1015,8 hPa 0,0 mm 4,8 km/h W-SW 252 10,2 C 16,8 C
24.06.2018 19:57 16,8 C 64 % 1015,8 hPa 0,0 mm 4,1 km/h W-SW 252 10,0 C 16,8 C
24.06.2018 19:56 16,9 C 66 % 1015,7 hPa 0,0 mm 3,4 km/h W-SW 238 10,5 C 16,9 C
24.06.2018 19:55 17,0 C 66 % 1015,8 hPa 0,0 mm 0,0 km/h W-SW 238 10,6 C 17,0 C
24.06.2018 19:54 17,1 C 65 % 1015,7 hPa 0,0 mm 0,0 km/h S-SW 193 10,5 C 17,1 C
24.06.2018 19:53 17,2 C 63 % 1015,8 hPa 0,0 mm 0,0 km/h S 187 10,1 C 17,2 C
24.06.2018 19:52 17,3 C 66 % 1015,8 hPa 0,0 mm 0,0 km/h S 177 10,9 C 17,3 C
24.06.2018 19:51 17,4 C 66 % 1015,7 hPa 0,0 mm 0,0 km/h S 177 11,0 C 17,4 C
24.06.2018 19:50 17,5 C 66 % 1015,8 hPa 0,0 mm 0,0 km/h S 177 11,1 C 17,5 C
24.06.2018 19:49 17,6 C 66 % 1015,7 hPa 0,0 mm 0,0 km/h S 173 11,2 C 17,6 C
24.06.2018 19:48 17,7 C 66 % 1015,8 hPa 0,0 mm 0,4 km/h S 173 11,3 C 17,7 C
24.06.2018 19:47 17,7 C 64 % 1015,7 hPa 0,0 mm 1,2 km/h S 173 10,8 C 17,7 C
24.06.2018 19:46 17,7 C 63 % 1015,7 hPa 0,0 mm 0,0 km/h S 173 10,6 C 17,7 C
24.06.2018 19:45 17,8 C 63 % 1015,7 hPa 0,0 mm 2,2 km/h S 173 10,7 C 17,8 C
24.06.2018 19:44 17,8 C 63 % 1015,7 hPa 0,0 mm 4,0 km/h S 173 10,7 C 17,8 C
24.06.2018 19:43 17,9 C 62 % 1015,7 hPa 0,0 mm 2,7 km/h S-SO 161 10,5 C 17,9 C
24.06.2018 19:42 17,9 C 61 % 1015,7 hPa 0,0 mm 1,1 km/h S-SO 160 10,3 C 17,9 C
24.06.2018 19:41 17,9 C 61 % 1015,7 hPa 0,0 mm 2,1 km/h S-SO 160 10,3 C 17,9 C
24.06.2018 19:40 18,0 C 60 % 1015,7 hPa 0,0 mm 2,6 km/h O-SO 111 10,1 C 18,0 C
24.06.2018 19:39 18,0 C 60 % 1015,7 hPa 0,0 mm 0,9 km/h SO 143 10,1 C 18,0 C
24.06.2018 19:38 18,0 C 59 % 1015,8 hPa 0,0 mm 2,1 km/h SO 143 9,9 C 18,0 C
24.06.2018 19:37 18,1 C 61 % 1015,8 hPa 0,0 mm 0,0 km/h SO 132 10,5 C 18,1 C
24.06.2018 19:36 18,1 C 61 % 1015,8 hPa 0,0 mm 0,1 km/h NO 42 10,5 C 18,1 C
24.06.2018 19:35 18,1 C 60 % 1015,7 hPa 0,0 mm 0,0 km/h NO 41 10,2 C 18,1 C
24.06.2018 19:34 18,1 C 60 % 1015,7 hPa 0,0 mm 0,0 km/h NO 41 10,2 C 18,1 C
24.06.2018 19:33 18,1 C 59 % 1015,8 hPa 0,0 mm 0,0 km/h NO 41 10,0 C 18,1 C
24.06.2018 19:32 18,1 C 57 % 1015,8 hPa 0,0 mm 0,0 km/h NO 41 9,4 C 18,1 C
24.06.2018 19:31 18,1 C 57 % 1015,7 hPa 0,0 mm 0,0 km/h NO 41 9,4 C 18,1 C
24.06.2018 19:30 18,1 C 57 % 1015,8 hPa 0,0 mm 0,0 km/h NO 41 9,4 C 18,1 C
24.06.2018 19:29 18,1 C 57 % 1015,8 hPa 0,0 mm 0,1 km/h NO 41 9,4 C 18,1 C
24.06.2018 19:28 18,1 C 56 % 1015,8 hPa 0,0 mm 0,0 km/h NO 41 9,2 C 18,1 C
24.06.2018 19:27 18,1 C 57 % 1015,8 hPa 0,0 mm 0,0 km/h NO 41 9,4 C 18,1 C
24.06.2018 19:26 18,2 C 57 % 1015,8 hPa 0,0 mm 0,0 km/h NO 41 9,5 C 18,2 C
24.06.2018 19:25 18,2 C 57 % 1015,8 hPa 0,0 mm 0,0 km/h NO 41 9,5 C 18,2 C
24.06.2018 19:24 18,2 C 58 % 1015,7 hPa 0,0 mm 0,0 km/h NO 41 9,8 C 18,2 C
24.06.2018 19:23 18,2 C 57 % 1015,7 hPa 0,0 mm 0,0 km/h NO 41 9,5 C 18,2 C
24.06.2018 19:22 18,2 C 57 % 1015,7 hPa 0,0 mm 0,3 km/h NO 41 9,5 C 18,2 C
24.06.2018 19:21 18,2 C 56 % 1015,8 hPa 0,0 mm 0,0 km/h NO 40 9,3 C 18,2 C
24.06.2018 19:20 18,2 C 55 % 1015,7 hPa 0,0 mm 0,0 km/h NO 40 9,0 C 18,2 C
24.06.2018 19:19 18,2 C 55 % 1015,7 hPa 0,0 mm 0,8 km/h NO 40 9,0 C 18,2 C
24.06.2018 19:18 18,2 C 55 % 1015,7 hPa 0,0 mm 2,3 km/h NO 41 9,0 C 18,2 C
24.06.2018 19:17 18,2 C 55 % 1015,7 hPa 0,0 mm 4,0 km/h O-NO 76 9,0 C 18,2 C
24.06.2018 19:16 18,3 C 55 % 1015,7 hPa 0,0 mm 1,8 km/h O-SO 108 9,1 C 18,3 C
24.06.2018 19:15 18,3 C 55 % 1015,6 hPa 0,0 mm 6,7 km/h O 87 9,1 C 18,2 C
24.06.2018 19:14 18,3 C 55 % 1015,6 hPa 0,0 mm 8,7 km/h N-NO 28 9,1 C 17,3 C
24.06.2018 19:13 18,3 C 55 % 1015,6 hPa 0,0 mm 5,5 km/h NO 49 9,1 C 18,3 C
24.06.2018 19:12 18,3 C 54 % 1015,6 hPa 0,0 mm 13,4 km/h NO 46 8,8 C 15,6 C
24.06.2018 19:11 18,3 C 54 % 1015,6 hPa 0,0 mm 6,1 km/h N-NO 30 8,8 C 18,3 C
24.06.2018 19:10 18,3 C 56 % 1015,7 hPa 0,0 mm 9,0 km/h NO 34 9,4 C 17,1 C
24.06.2018 19:09 18,3 C 56 % 1015,6 hPa 0,0 mm 0,5 km/h O 92 9,4 C 18,3 C
24.06.2018 19:08 18,2 C 55 % 1015,6 hPa 0,0 mm 0,7 km/h S-SW 202 9,0 C 18,2 C
24.06.2018 19:07 18,2 C 58 % 1015,6 hPa 0,0 mm 1,4 km/h O-NO 59 9,8 C 18,2 C
24.06.2018 19:06 18,1 C 56 % 1015,6 hPa 0,0 mm 0,5 km/h NO 44 9,2 C 18,1 C
24.06.2018 19:05 18,1 C 56 % 1015,6 hPa 0,0 mm 0,0 km/h S-SW 211 9,2 C 18,1 C
24.06.2018 19:04 17,9 C 56 % 1015,6 hPa 0,0 mm 1,4 km/h O-SO 109 9,0 C 17,9 C
24.06.2018 19:03 17,9 C 57 % 1015,6 hPa 0,0 mm 1,3 km/h O-SO 109 9,3 C 17,9 C
24.06.2018 19:02 17,8 C 55 % 1015,6 hPa 0,0 mm 0,8 km/h O-NO 78 8,6 C 17,8 C
24.06.2018 19:01 17,7 C 55 % 1015,6 hPa 0,0 mm 0,3 km/h O-NO 78 8,5 C 17,7 C
24.06.2018 19:00 17,7 C 56 % 1015,6 hPa 0,0 mm 0,1 km/h NO 45 8,8 C 17,7 C
24.06.2018 18:59 17,6 C 57 % 1015,6 hPa 0,0 mm 0,9 km/h NW 311 9,0 C 17,6 C
24.06.2018 18:58 17,6 C 57 % 1015,6 hPa 0,0 mm 1,2 km/h O-NO 67 9,0 C 17,6 C
24.06.2018 18:57 17,6 C 56 % 1015,6 hPa 0,0 mm 0,4 km/h W-SW 254 8,7 C 17,6 C
24.06.2018 18:56 17,6 C 56 % 1015,6 hPa 0,0 mm 2,1 km/h W-SW 242 8,7 C 17,6 C
24.06.2018 18:55 17,6 C 56 % 1015,6 hPa 0,0 mm 6,0 km/h O-NO 69 8,7 C 17,6 C
24.06.2018 18:54 17,7 C 57 % 1015,6 hPa 0,0 mm 5,0 km/h NO 34 9,1 C 17,7 C
24.06.2018 18:53 17,7 C 57 % 1015,6 hPa 0,0 mm 3,6 km/h N 9 9,1 C 17,7 C
24.06.2018 18:52 17,7 C 58 % 1015,6 hPa 0,0 mm 0,8 km/h O-NO 59 9,3 C 17,7 C
24.06.2018 18:51 17,7 C 58 % 1015,6 hPa 0,0 mm 0,0 km/h O-SO 114 9,3 C 17,7 C
24.06.2018 18:50 17,7 C 57 % 1015,6 hPa 0,0 mm 1,4 km/h O-SO 114 9,1 C 17,7 C
24.06.2018 18:49 17,7 C 56 % 1015,6 hPa 0,0 mm 3,1 km/h O-SO 123 8,8 C 17,7 C
24.06.2018 18:48 17,7 C 56 % 1015,7 hPa 0,0 mm 5,2 km/h O 98 8,8 C 17,7 C
24.06.2018 18:47 17,7 C 56 % 1015,7 hPa 0,0 mm 3,0 km/h O 86 8,8 C 17,7 C
24.06.2018 18:46 17,7 C 55 % 1015,7 hPa 0,0 mm 1,4 km/h S-SO 150 8,5 C 17,7 C
24.06.2018 18:45 17,7 C 55 % 1015,7 hPa 0,0 mm 0,0 km/h S-SO 152 8,5 C 17,7 C
24.06.2018 18:44 17,7 C 57 % 1015,7 hPa 0,0 mm 0,0 km/h O-SO 109 9,1 C 17,7 C
24.06.2018 18:43 17,7 C 56 % 1015,7 hPa 0,0 mm 0,6 km/h O-SO 109 8,8 C 17,7 C
24.06.2018 18:42 17,7 C 56 % 1015,8 hPa 0,0 mm 0,1 km/h O-SO 109 8,8 C 17,7 C
24.06.2018 18:41 17,7 C 57 % 1015,8 hPa 0,0 mm 0,5 km/h O-SO 109 9,1 C 17,7 C
24.06.2018 18:40 17,7 C 57 % 1015,8 hPa 0,0 mm 2,3 km/h O-SO 109 9,1 C 17,7 C
24.06.2018 18:39 17,7 C 55 % 1015,8 hPa 0,0 mm 2,3 km/h O-SO 106 8,5 C 17,7 C
24.06.2018 18:38 17,7 C 55 % 1015,8 hPa 0,0 mm 2,9 km/h O-SO 113 8,5 C 17,7 C
24.06.2018 18:37 17,7 C 55 % 1015,8 hPa 0,0 mm 0,1 km/h O 86 8,5 C 17,7 C
24.06.2018 18:36 17,7 C 55 % 1015,8 hPa 0,0 mm 2,0 km/h SO 138 8,5 C 17,7 C
24.06.2018 18:35 17,6 C 55 % 1015,8 hPa 0,0 mm 4,6 km/h SO 138 8,5 C 17,6 C
24.06.2018 18:34 17,6 C 56 % 1015,9 hPa 0,0 mm 2,8 km/h SO 129 8,7 C 17,6 C
24.06.2018 18:33 17,6 C 56 % 1015,9 hPa 0,0 mm 1,5 km/h O 101 8,7 C 17,6 C
24.06.2018 18:32 17,6 C 54 % 1015,9 hPa 0,0 mm 0,1 km/h O 101 8,2 C 17,6 C
24.06.2018 18:31 17,6 C 54 % 1015,9 hPa 0,0 mm 0,1 km/h O 92 8,2 C 17,6 C
24.06.2018 18:30 17,6 C 55 % 1015,9 hPa 0,0 mm 3,8 km/h O 92 8,5 C 17,6 C
24.06.2018 18:29 17,6 C 54 % 1015,9 hPa 0,0 mm 1,3 km/h O 86 8,2 C 17,6 C
24.06.2018 18:28 17,6 C 56 % 1015,9 hPa 0,0 mm 3,8 km/h NO 44 8,7 C 17,6 C
24.06.2018 18:27 17,6 C 56 % 1016,0 hPa 0,0 mm 0,3 km/h N-NO 29 8,7 C 17,6 C
24.06.2018 18:26 17,6 C 55 % 1015,9 hPa 0,0 mm 1,7 km/h N-NO 29 8,5 C 17,6 C
24.06.2018 18:25 17,6 C 54 % 1015,9 hPa 0,0 mm 1,1 km/h O 82 8,2 C 17,6 C
24.06.2018 18:24 17,7 C 54 % 1015,9 hPa 0,0 mm 0,1 km/h NO 47 8,3 C 17,7 C
24.06.2018 18:23 17,7 C 54 % 1015,9 hPa 0,0 mm 3,2 km/h O-NO 63 8,3 C 17,7 C
24.06.2018 18:22 17,7 C 54 % 1015,9 hPa 0,0 mm 3,1 km/h O 85 8,3 C 17,7 C
24.06.2018 18:21 17,7 C 53 % 1015,9 hPa 0,0 mm 6,1 km/h NW 317 8,0 C 17,7 C
24.06.2018 18:20 17,7 C 53 % 1015,9 hPa 0,0 mm 6,2 km/h NO 56 8,0 C 17,7 C
24.06.2018 18:19 17,8 C 54 % 1015,9 hPa 0,0 mm 5,4 km/h O-NO 75 8,4 C 17,8 C
24.06.2018 18:18 17,8 C 55 % 1015,9 hPa 0,0 mm 8,8 km/h O 80 8,6 C 16,7 C
24.06.2018 18:17 17,8 C 54 % 1015,9 hPa 0,0 mm 5,0 km/h O 92 8,4 C 17,8 C
24.06.2018 18:16 17,8 C 55 % 1015,9 hPa 0,0 mm 4,0 km/h N 5 8,6 C 17,8 C
24.06.2018 18:15 17,8 C 54 % 1015,9 hPa 0,0 mm 5,6 km/h O-NO 63 8,4 C 17,8 C
24.06.2018 18:14 17,9 C 53 % 1015,9 hPa 0,0 mm 7,6 km/h O 86 8,2 C 17,3 C
24.06.2018 18:13 17,9 C 54 % 1016,0 hPa 0,0 mm 6,4 km/h N-NO 26 8,5 C 17,9 C
24.06.2018 18:12 17,9 C 55 % 1015,9 hPa 0,0 mm 8,3 km/h NO 45 8,7 C 17,0 C
24.06.2018 18:11 17,8 C 53 % 1015,9 hPa 0,0 mm 4,2 km/h N 355 8,1 C 17,8 C
24.06.2018 18:10 17,8 C 54 % 1015,9 hPa 0,0 mm 5,6 km/h NO 51 8,4 C 17,8 C
24.06.2018 18:09 17,7 C 57 % 1016,0 hPa 0,0 mm 5,8 km/h O-NO 74 9,1 C 17,7 C
24.06.2018 18:08 17,7 C 54 % 1015,9 hPa 0,0 mm 5,5 km/h O 90 8,3 C 17,7 C
24.06.2018 18:07 17,7 C 55 % 1016,0 hPa 0,0 mm 4,5 km/h O 92 8,5 C 17,7 C
24.06.2018 18:06 17,7 C 54 % 1016,0 hPa 0,0 mm 1,4 km/h O-NO 69 8,3 C 17,7 C
24.06.2018 18:05 17,7 C 53 % 1016,0 hPa 0,0 mm 4,9 km/h NO 54 8,0 C 17,7 C
24.06.2018 18:04 17,7 C 54 % 1016,0 hPa 0,0 mm 6,3 km/h N-NO 14 8,3 C 17,7 C
24.06.2018 18:03 17,7 C 53 % 1016,0 hPa 0,0 mm 7,9 km/h N-NO 21 8,0 C 17,0 C
24.06.2018 18:02 17,7 C 54 % 1016,0 hPa 0,0 mm 8,7 km/h N-NO 21 8,3 C 16,6 C
24.06.2018 18:01 17,7 C 55 % 1016,1 hPa 0,0 mm 6,1 km/h N-NO 20 8,5 C 17,7 C
24.06.2018 18:00 17,8 C 54 % 1016,1 hPa 0,0 mm 2,8 km/h NO 55 8,4 C 17,8 C
24.06.2018 17:59 17,8 C 56 % 1016,0 hPa 0,0 mm 1,4 km/h N-NO 17 8,9 C 17,8 C
24.06.2018 17:58 17,8 C 57 % 1016,0 hPa 0,0 mm 0,3 km/h N-NO 19 9,2 C 17,8 C
24.06.2018 17:57 17,8 C 56 % 1016,0 hPa 0,0 mm 3,6 km/h N-NO 18 8,9 C 17,8 C
24.06.2018 17:56 17,8 C 55 % 1016,0 hPa 0,0 mm 3,9 km/h NO 34 8,6 C 17,8 C
24.06.2018 17:55 17,8 C 55 % 1016,0 hPa 0,0 mm 2,7 km/h NO 53 8,6 C 17,8 C
24.06.2018 17:54 17,8 C 54 % 1016,0 hPa 0,0 mm 1,7 km/h NO 36 8,4 C 17,8 C
24.06.2018 17:53 17,9 C 54 % 1016,0 hPa 0,0 mm 0,4 km/h NO 36 8,5 C 17,9 C
24.06.2018 17:52 17,9 C 53 % 1016,0 hPa 0,0 mm 1,5 km/h NO 36 8,2 C 17,9 C
24.06.2018 17:51 17,9 C 54 % 1016,0 hPa 0,0 mm 3,2 km/h NO 36 8,5 C 17,9 C
24.06.2018 17:50 17,9 C 55 % 1016,1 hPa 0,0 mm 0,0 km/h NO 37 8,7 C 17,9 C
24.06.2018 17:49 17,9 C 54 % 1016,1 hPa 0,0 mm 0,0 km/h NO 37 8,5 C 17,9 C
24.06.2018 17:48 17,9 C 53 % 1016,1 hPa 0,0 mm 0,0 km/h NO 37 8,2 C 17,9 C
24.06.2018 17:47 17,9 C 53 % 1016,1 hPa 0,0 mm 2,9 km/h NO 36 8,2 C 17,9 C
24.06.2018 17:46 17,9 C 53 % 1016,1 hPa 0,0 mm 1,4 km/h NO 55 8,2 C 17,9 C
24.06.2018 17:45 17,9 C 53 % 1016,1 hPa 0,0 mm 1,5 km/h O 88 8,2 C 17,9 C
24.06.2018 17:44 17,9 C 54 % 1016,1 hPa 0,0 mm 0,0 km/h N-NO 15 8,5 C 17,9 C
24.06.2018 17:43 17,9 C 54 % 1016,1 hPa 0,0 mm 0,0 km/h N-NO 14 8,5 C 17,9 C
24.06.2018 17:42 17,9 C 54 % 1016,1 hPa 0,0 mm 0,3 km/h N-NO 14 8,5 C 17,9 C
24.06.2018 17:41 17,9 C 55 % 1016,1 hPa 0,0 mm 1,0 km/h N-NO 14 8,7 C 17,9 C
24.06.2018 17:40 17,9 C 54 % 1016,1 hPa 0,0 mm 4,0 km/h N-NO 14 8,5 C 17,9 C
24.06.2018 17:39 17,9 C 54 % 1016,1 hPa 0,0 mm 5,4 km/h N 5 8,5 C 17,9 C
24.06.2018 17:38 17,9 C 53 % 1016,1 hPa 0,0 mm 11,5 km/h N-NW 335 8,2 C 15,8 C
24.06.2018 17:37 17,9 C 52 % 1016,1 hPa 0,0 mm 9,8 km/h NW 323 7,9 C 16,4 C
24.06.2018 17:36 17,9 C 54 % 1016,1 hPa 0,0 mm 7,0 km/h NW 323 8,5 C 17,6 C
24.06.2018 17:35 17,9 C 54 % 1016,1 hPa 0,0 mm 6,6 km/h N 11 8,5 C 17,8 C
24.06.2018 17:34 17,9 C 54 % 1016,1 hPa 0,0 mm 6,3 km/h N 355 8,5 C 17,9 C
24.06.2018 17:33 17,9 C 53 % 1016,1 hPa 0,0 mm 8,6 km/h N 5 8,2 C 16,9 C
24.06.2018 17:32 17,9 C 53 % 1016,1 hPa 0,0 mm 8,6 km/h N-NO 19 8,2 C 16,9 C
24.06.2018 17:31 18,0 C 53 % 1016,1 hPa 0,0 mm 10,1 km/h N-NO 22 8,3 C 16,4 C
24.06.2018 17:30 18,0 C 52 % 1016,1 hPa 0,0 mm 13,8 km/h N 5 8,0 C 15,2 C
24.06.2018 17:29 18,0 C 54 % 1016,1 hPa 0,0 mm 14,9 km/h N 355 8,6 C 14,9 C
24.06.2018 17:28 18,1 C 56 % 1016,1 hPa 0,0 mm 13,2 km/h N 5 9,2 C 15,5 C
24.06.2018 17:27 18,1 C 56 % 1016,1 hPa 0,0 mm 11,9 km/h N 5 9,2 C 15,9 C
24.06.2018 17:26 18,1 C 55 % 1016,1 hPa 0,0 mm 11,7 km/h N 355 8,9 C 15,9 C
24.06.2018 17:25 18,1 C 54 % 1016,1 hPa 0,0 mm 9,3 km/h N-NO 20 8,6 C 16,8 C
24.06.2018 17:24 18,1 C 54 % 1016,1 hPa 0,0 mm 12,3 km/h N-NO 14 8,6 C 15,7 C
24.06.2018 17:23 18,1 C 53 % 1016,2 hPa 0,0 mm 10,7 km/h N 9 8,4 C 16,3 C
24.06.2018 17:22 18,1 C 53 % 1016,1 hPa 0,0 mm 13,6 km/h N 355 8,4 C 15,3 C
24.06.2018 17:21 18,1 C 53 % 1016,1 hPa 0,0 mm 13,9 km/h N 5 8,4 C 15,3 C
24.06.2018 17:20 18,2 C 52 % 1016,2 hPa 0,0 mm 15,0 km/h N-NO 19 8,2 C 15,1 C
24.06.2018 17:19 18,2 C 53 % 1016,2 hPa 0,0 mm 16,6 km/h N 5 8,5 C 14,7 C
24.06.2018 17:18 18,2 C 54 % 1016,1 hPa 0,0 mm 19,2 km/h N 9 8,7 C 14,1 C
24.06.2018 17:17 18,3 C 54 % 1016,2 hPa 0,0 mm 13,9 km/h N-NW 347 8,8 C 15,5 C
24.06.2018 17:16 18,3 C 53 % 1016,1 hPa 0,0 mm 15,5 km/h N 349 8,6 C 15,1 C
24.06.2018 17:15 18,3 C 54 % 1016,2 hPa 0,0 mm 17,2 km/h N 11 8,8 C 14,6 C
24.06.2018 17:14 18,3 C 54 % 1016,2 hPa 0,0 mm 15,3 km/h N 355 8,8 C 15,1 C
24.06.2018 17:13 18,4 C 55 % 1016,1 hPa 0,0 mm 10,6 km/h N 9 9,2 C 16,7 C
24.06.2018 17:12 18,4 C 54 % 1016,2 hPa 0,0 mm 7,1 km/h N-NO 19 8,9 C 18,1 C
24.06.2018 17:11 18,4 C 53 % 1016,2 hPa 0,0 mm 9,2 km/h N 355 8,6 C 17,2 C
24.06.2018 17:10 18,4 C 52 % 1016,2 hPa 0,0 mm 9,0 km/h N 5 8,4 C 17,3 C
24.06.2018 17:09 18,4 C 51 % 1016,2 hPa 0,0 mm 15,7 km/h N 355 8,1 C 15,1 C
24.06.2018 17:08 18,4 C 51 % 1016,2 hPa 0,0 mm 9,7 km/h N-NW 327 8,1 C 17,0 C
24.06.2018 17:07 18,4 C 51 % 1016,2 hPa 0,0 mm 10,3 km/h N 360 8,1 C 16,8 C
24.06.2018 17:06 18,4 C 50 % 1016,2 hPa 0,0 mm 9,2 km/h NW 326 7,8 C 17,2 C
24.06.2018 17:05 18,5 C 49 % 1016,2 hPa 0,0 mm 10,9 km/h N-NW 344 7,6 C 16,7 C
24.06.2018 17:04 18,5 C 49 % 1016,2 hPa 0,0 mm 14,7 km/h N-NW 348 7,6 C 15,5 C
24.06.2018 17:03 18,5 C 49 % 1016,2 hPa 0,0 mm 14,9 km/h N 350 7,6 C 15,5 C
24.06.2018 17:02 18,5 C 49 % 1016,2 hPa 0,0 mm 17,2 km/h N-NW 332 7,6 C 14,9 C
24.06.2018 17:01 18,6 C 49 % 1016,2 hPa 0,0 mm 14,0 km/h N 355 7,7 C 15,8 C
24.06.2018 17:00 18,6 C 48 % 1016,2 hPa 0,0 mm 14,7 km/h N-NW 348 7,4 C 15,6 C
24.06.2018 16:59 18,6 C 50 % 1016,2 hPa 0,0 mm 15,1 km/h N-NW 327 8,0 C 15,5 C
24.06.2018 16:58 18,6 C 49 % 1016,2 hPa 0,0 mm 17,1 km/h N-NW 344 7,7 C 15,0 C
24.06.2018 16:57 18,7 C 49 % 1016,2 hPa 0,0 mm 18,7 km/h N-NW 340 7,8 C 14,8 C
24.06.2018 16:56 18,7 C 49 % 1016,2 hPa 0,0 mm 16,8 km/h N 355 7,8 C 15,2 C
24.06.2018 16:55 18,7 C 49 % 1016,2 hPa 0,0 mm 19,7 km/h N 360 7,8 C 14,6 C
24.06.2018 16:54 18,8 C 49 % 1016,2 hPa 0,0 mm 21,0 km/h N-NW 346 7,9 C 14,5 C
24.06.2018 16:53 18,8 C 49 % 1016,2 hPa 0,0 mm 18,3 km/h N-NW 348 7,9 C 15,0 C
24.06.2018 16:52 18,9 C 49 % 1016,2 hPa 0,0 mm 16,3 km/h N 11 7,9 C 15,6 C
24.06.2018 16:51 18,9 C 49 % 1016,2 hPa 0,0 mm 14,6 km/h N-NW 344 7,9 C 16,0 C
24.06.2018 16:50 19,0 C 50 % 1016,2 hPa 0,0 mm 13,4 km/h N 355 8,3 C 16,5 C
24.06.2018 16:49 19,0 C 50 % 1016,2 hPa 0,0 mm 12,9 km/h NW 318 8,3 C 16,6 C
24.06.2018 16:48 19,1 C 49 % 1016,1 hPa 0,0 mm 13,6 km/h N 355 8,1 C 16,5 C
24.06.2018 16:47 19,1 C 49 % 1016,2 hPa 0,0 mm 14,7 km/h N-NO 12 8,1 C 16,2 C
24.06.2018 16:46 19,2 C 48 % 1016,2 hPa 0,0 mm 8,5 km/h N-NW 343 7,9 C 18,3 C
24.06.2018 16:45 19,2 C 50 % 1016,1 hPa 0,0 mm 8,5 km/h NW 321 8,5 C 18,3 C
24.06.2018 16:44 19,2 C 48 % 1016,1 hPa 0,0 mm 8,0 km/h NW 317 7,9 C 18,5 C
24.06.2018 16:43 19,2 C 48 % 1016,1 hPa 0,0 mm 9,7 km/h N-NW 333 7,9 C 17,9 C
24.06.2018 16:42 19,3 C 47 % 1016,1 hPa 0,0 mm 11,3 km/h N-NW 336 7,7 C 17,4 C
24.06.2018 16:41 19,3 C 49 % 1016,1 hPa 0,0 mm 13,6 km/h NW 323 8,3 C 16,8 C
24.06.2018 16:40 19,3 C 48 % 1016,0 hPa 0,0 mm 10,0 km/h N-NW 344 8,0 C 17,9 C
24.06.2018 16:39 19,3 C 46 % 1016,1 hPa 0,0 mm 13,0 km/h N 360 7,4 C 16,9 C
24.06.2018 16:38 19,4 C 46 % 1016,0 hPa 0,0 mm 15,3 km/h N-NW 339 7,5 C 16,4 C
24.06.2018 16:37 19,4 C 46 % 1016,1 hPa 0,0 mm 15,7 km/h N-NW 346 7,5 C 16,4 C
24.06.2018 16:36 19,4 C 47 % 1016,1 hPa 0,0 mm 11,4 km/h N-NW 342 7,8 C 17,5 C
24.06.2018 16:35 19,4 C 48 % 1016,0 hPa 0,0 mm 12,8 km/h N 350 8,1 C 17,1 C
24.06.2018 16:34 19,4 C 48 % 1016,0 hPa 0,0 mm 11,7 km/h N 5 8,1 C 17,4 C
24.06.2018 16:33 19,4 C 48 % 1016,0 hPa 0,0 mm 11,8 km/h N-NO 16 8,1 C 17,4 C
24.06.2018 16:32 19,4 C 48 % 1016,0 hPa 0,0 mm 12,1 km/h N-NO 22 8,1 C 17,3 C
24.06.2018 16:31 19,4 C 46 % 1016,0 hPa 0,0 mm 12,1 km/h N 355 7,5 C 17,3 C
24.06.2018 16:30 19,3 C 49 % 1016,0 hPa 0,0 mm 10,8 km/h NW 318 8,3 C 17,6 C
24.06.2018 16:29 19,3 C 47 % 1016,0 hPa 0,0 mm 9,7 km/h N 5 7,7 C 18,0 C
24.06.2018 16:28 19,3 C 45 % 1016,0 hPa 0,0 mm 13,6 km/h N-NW 338 7,1 C 16,8 C
24.06.2018 16:27 19,3 C 49 % 1016,0 hPa 0,0 mm 14,2 km/h N 360 8,3 C 16,6 C
24.06.2018 16:26 19,3 C 48 % 1015,9 hPa 0,0 mm 15,9 km/h N-NO 31 8,0 C 16,2 C
24.06.2018 16:25 19,3 C 50 % 1015,9 hPa 0,0 mm 9,1 km/h N-NO 12 8,6 C 18,2 C
24.06.2018 16:24 19,3 C 48 % 1015,9 hPa 0,0 mm 8,0 km/h N-NO 20 8,0 C 18,6 C
24.06.2018 16:23 19,3 C 47 % 1015,9 hPa 0,0 mm 10,5 km/h N 11 7,7 C 17,7 C
24.06.2018 16:22 19,3 C 47 % 1015,9 hPa 0,0 mm 9,8 km/h N-NO 15 7,7 C 17,9 C
24.06.2018 16:21 19,3 C 48 % 1015,9 hPa 0,0 mm 11,9 km/h N 5 8,0 C 17,3 C
24.06.2018 16:20 19,4 C 48 % 1015,9 hPa 0,0 mm 13,5 km/h N 9 8,1 C 16,9 C
24.06.2018 16:19 19,4 C 47 % 1015,9 hPa 0,0 mm 15,8 km/h N-NW 332 7,8 C 16,3 C
24.06.2018 16:18 19,4 C 47 % 1015,9 hPa 0,0 mm 13,1 km/h N-NW 345 7,8 C 17,0 C
24.06.2018 16:17 19,4 C 45 % 1015,8 hPa 0,0 mm 8,5 km/h N 360 7,2 C 18,5 C
24.06.2018 16:16 19,4 C 46 % 1015,8 hPa 0,0 mm 11,4 km/h N 360 7,5 C 17,5 C
24.06.2018 16:15 19,5 C 44 % 1015,9 hPa 0,0 mm 9,8 km/h N-NW 343 6,9 C 18,2 C
24.06.2018 16:14 19,5 C 45 % 1015,9 hPa 0,0 mm 14,1 km/h N 351 7,2 C 16,9 C
24.06.2018 16:13 19,6 C 47 % 1015,9 hPa 0,0 mm 11,6 km/h N 5 8,0 C 17,7 C
24.06.2018 16:12 19,6 C 46 % 1015,9 hPa 0,0 mm 10,1 km/h N 360 7,7 C 18,2 C
24.06.2018 16:11 19,6 C 46 % 1015,9 hPa 0,0 mm 11,1 km/h N 355 7,7 C 17,8 C
24.06.2018 16:10 19,6 C 44 % 1015,9 hPa 0,0 mm 6,2 km/h N-NW 338 7,0 C 19,6 C
24.06.2018 16:09 19,6 C 44 % 1015,9 hPa 0,0 mm 6,6 km/h N-NW 346 7,0 C 19,5 C
24.06.2018 16:08 19,7 C 46 % 1015,9 hPa 0,0 mm 7,8 km/h NW 307 7,8 C 19,1 C
24.06.2018 16:07 19,7 C 47 % 1015,9 hPa 0,0 mm 6,4 km/h N-NW 328 8,1 C 19,7 C
24.06.2018 16:06 19,7 C 44 % 1015,9 hPa 0,0 mm 5,4 km/h NW 313 7,1 C 19,7 C
24.06.2018 16:05 19,8 C 41 % 1015,9 hPa 0,0 mm 8,7 km/h NW 314 6,2 C 18,9 C
24.06.2018 16:04 19,8 C 44 % 1015,8 hPa 0,0 mm 9,4 km/h NW 321 7,2 C 18,6 C
24.06.2018 16:03 19,9 C 45 % 1015,9 hPa 0,0 mm 13,8 km/h N-NW 336 7,6 C 17,4 C
24.06.2018 16:02 19,9 C 46 % 1015,9 hPa 0,0 mm 12,2 km/h N-NW 327 7,9 C 17,9 C
24.06.2018 16:01 20,0 C 46 % 1015,9 hPa 0,0 mm 6,8 km/h N-NW 337 8,0 C 19,8 C
24.06.2018 16:00 20,1 C 42 % 1015,9 hPa 0,0 mm 7,6 km/h N-NW 344 6,8 C 19,6 C
24.06.2018 15:59 20,2 C 43 % 1015,9 hPa 0,0 mm 9,3 km/h N-NW 340 7,2 C 19,1 C
24.06.2018 15:58 20,2 C 43 % 1015,9 hPa 0,0 mm 8,2 km/h N 5 7,2 C 19,5 C
24.06.2018 15:57 20,3 C 42 % 1016,0 hPa 0,0 mm 12,9 km/h N 10 7,0 C 18,1 C
24.06.2018 15:56 20,3 C 44 % 1015,9 hPa 0,0 mm 14,4 km/h N 5 7,6 C 17,8 C
24.06.2018 15:55 20,4 C 43 % 1015,9 hPa 0,0 mm 11,5 km/h NO 36 7,4 C 18,6 C
24.06.2018 15:54 20,6 C 45 % 1016,0 hPa 0,0 mm 10,5 km/h N-NW 335 8,2 C 19,1 C
24.06.2018 15:53 20,7 C 43 % 1016,0 hPa 0,0 mm 10,3 km/h N 360 7,7 C 19,3 C
24.06.2018 15:52 20,8 C 45 % 1016,0 hPa 0,0 mm 15,2 km/h N-NO 14 8,4 C 18,2 C
24.06.2018 15:51 20,8 C 42 % 1016,0 hPa 0,0 mm 9,9 km/h N-NO 22 7,4 C 19,6 C
24.06.2018 15:50 20,8 C 45 % 1016,0 hPa 0,0 mm 3,4 km/h N-NW 335 8,4 C 20,8 C
24.06.2018 15:49 20,7 C 47 % 1016,0 hPa 0,0 mm 2,5 km/h W-NW 299 9,0 C 20,7 C
24.06.2018 15:48 20,6 C 42 % 1016,0 hPa 0,0 mm 2,2 km/h SW 223 7,2 C 20,6 C
24.06.2018 15:47 20,6 C 43 % 1016,0 hPa 0,0 mm 2,5 km/h SW 226 7,6 C 20,6 C
24.06.2018 15:46 20,5 C 43 % 1016,1 hPa 0,0 mm 2,1 km/h SW 215 7,5 C 20,5 C
24.06.2018 15:45 20,5 C 42 % 1016,1 hPa 0,0 mm 8,0 km/h SW 234 7,1 C 19,9 C
24.06.2018 15:44 20,4 C 43 % 1016,1 hPa 0,0 mm 11,5 km/h W-SW 255 7,4 C 18,6 C
24.06.2018 15:43 20,3 C 45 % 1016,1 hPa 0,0 mm 4,6 km/h W 272 8,0 C 20,3 C
24.06.2018 15:42 20,3 C 43 % 1016,1 hPa 0,0 mm 2,9 km/h N-NO 16 7,3 C 20,3 C
24.06.2018 15:41 20,3 C 43 % 1016,1 hPa 0,0 mm 1,1 km/h N-NO 17 7,3 C 20,3 C
24.06.2018 15:40 20,3 C 40 % 1016,2 hPa 0,0 mm 0,1 km/h SW 225 6,3 C 20,3 C
24.06.2018 15:39 20,3 C 43 % 1016,2 hPa 0,0 mm 0,3 km/h SW 225 7,3 C 20,3 C
24.06.2018 15:38 20,2 C 44 % 1016,1 hPa 0,0 mm 3,4 km/h SW 225 7,6 C 20,2 C
24.06.2018 15:37 20,2 C 46 % 1016,2 hPa 0,0 mm 6,1 km/h S-SW 207 8,2 C 20,2 C
24.06.2018 15:36 20,1 C 45 % 1016,2 hPa 0,0 mm 4,8 km/h S-SW 192 7,8 C 20,1 C
24.06.2018 15:35 20,0 C 44 % 1016,2 hPa 0,0 mm 0,7 km/h S-SO 167 7,4 C 20,0 C
24.06.2018 15:34 19,9 C 44 % 1016,2 hPa 0,0 mm 0,9 km/h S-SW 194 7,3 C 19,9 C
24.06.2018 15:33 19,8 C 43 % 1016,2 hPa 0,0 mm 2,1 km/h S-SW 193 6,9 C 19,8 C
24.06.2018 15:32 19,7 C 42 % 1016,2 hPa 0,0 mm 2,9 km/h S 182 6,4 C 19,7 C
24.06.2018 15:31 19,6 C 43 % 1016,2 hPa 0,0 mm 2,4 km/h W-SW 240 6,7 C 19,6 C
24.06.2018 15:30 19,5 C 42 % 1016,3 hPa 0,0 mm 4,1 km/h W-SW 240 6,2 C 19,5 C
24.06.2018 15:29 19,4 C 43 % 1016,3 hPa 0,0 mm 5,1 km/h W-NW 294 6,5 C 19,4 C
24.06.2018 15:28 19,3 C 44 % 1016,3 hPa 0,0 mm 7,8 km/h W-NW 292 6,7 C 18,7 C
24.06.2018 15:27 19,3 C 47 % 1016,4 hPa 0,0 mm 6,0 km/h W-NW 294 7,7 C 19,3 C
24.06.2018 15:26 19,3 C 45 % 1016,3 hPa 0,0 mm 7,0 km/h W-NW 300 7,1 C 19,0 C
24.06.2018 15:25 19,4 C 46 % 1016,3 hPa 0,0 mm 10,1 km/h NW 313 7,5 C 17,9 C
24.06.2018 15:24 19,4 C 45 % 1016,3 hPa 0,0 mm 6,0 km/h NW 308 7,2 C 19,4 C
24.06.2018 15:23 19,5 C 45 % 1016,4 hPa 0,0 mm 8,2 km/h W 281 7,2 C 18,7 C
24.06.2018 15:22 19,6 C 45 % 1016,4 hPa 0,0 mm 6,4 km/h W-NW 297 7,3 C 19,6 C
24.06.2018 15:21 19,7 C 47 % 1016,4 hPa 0,0 mm 8,4 km/h NW 321 8,1 C 18,9 C
24.06.2018 15:20 19,8 C 44 % 1016,4 hPa 0,0 mm 7,6 km/h N-NO 20 7,2 C 19,3 C
24.06.2018 15:19 19,9 C 44 % 1016,4 hPa 0,0 mm 5,9 km/h NO 52 7,3 C 19,9 C
24.06.2018 15:18 19,9 C 47 % 1016,4 hPa 0,0 mm 7,8 km/h N 355 8,3 C 19,3 C
24.06.2018 15:17 20,0 C 47 % 1016,4 hPa 0,0 mm 8,6 km/h NO 44 8,3 C 19,1 C
24.06.2018 15:16 20,0 C 47 % 1016,4 hPa 0,0 mm 3,6 km/h N-NO 12 8,3 C 20,0 C
24.06.2018 15:15 19,9 C 51 % 1016,4 hPa 0,0 mm 2,9 km/h NO 44 9,5 C 19,9 C
24.06.2018 15:14 19,8 C 46 % 1016,4 hPa 0,0 mm 1,4 km/h N-NO 32 7,8 C 19,8 C
24.06.2018 15:13 19,7 C 49 % 1016,4 hPa 0,0 mm 0,2 km/h O-SO 113 8,7 C 19,7 C
24.06.2018 15:12 19,5 C 49 % 1016,4 hPa 0,0 mm 0,0 km/h O-SO 113 8,5 C 19,5 C
24.06.2018 15:11 19,4 C 50 % 1016,4 hPa 0,0 mm 0,1 km/h O-SO 112 8,7 C 19,4 C
24.06.2018 15:10 19,3 C 46 % 1016,4 hPa 0,0 mm 1,6 km/h O-NO 77 7,4 C 19,3 C
24.06.2018 15:09 19,5 C 46 % 1016,4 hPa 0,0 mm 3,5 km/h O-NO 77 7,6 C 19,5 C
24.06.2018 15:08 19,6 C 44 % 1016,4 hPa 0,0 mm 4,0 km/h O-NO 78 7,0 C 19,6 C
24.06.2018 15:07 19,7 C 45 % 1016,5 hPa 0,0 mm 4,4 km/h NO 51 7,4 C 19,7 C
24.06.2018 15:06 19,8 C 48 % 1016,5 hPa 0,0 mm 3,7 km/h N-NO 20 8,5 C 19,8 C
24.06.2018 15:05 19,8 C 51 % 1016,5 hPa 0,0 mm 4,4 km/h N-NO 23 9,4 C 19,8 C
24.06.2018 15:04 19,8 C 49 % 1016,5 hPa 0,0 mm 6,7 km/h N-NO 26 8,8 C 19,7 C
24.06.2018 15:03 19,9 C 48 % 1016,5 hPa 0,0 mm 4,2 km/h NO 44 8,6 C 19,9 C
24.06.2018 15:02 19,8 C 47 % 1016,4 hPa 0,0 mm 0,1 km/h SO 138 8,2 C 19,8 C
24.06.2018 15:01 19,8 C 46 % 1016,5 hPa 0,0 mm 0,7 km/h SO 138 7,8 C 19,8 C
24.06.2018 15:00 19,7 C 48 % 1016,4 hPa 0,0 mm 1,8 km/h SO 138 8,4 C 19,7 C
24.06.2018 14:59 19,7 C 46 % 1016,5 hPa 0,0 mm 0,7 km/h SO 138 7,8 C 19,7 C
24.06.2018 14:58 19,6 C 44 % 1016,5 hPa 0,0 mm 0,1 km/h S 186 7,0 C 19,6 C
24.06.2018 14:57 19,5 C 48 % 1016,5 hPa 0,0 mm 0,5 km/h S 187 8,2 C 19,5 C
24.06.2018 14:56 19,3 C 50 % 1016,5 hPa 0,0 mm 0,9 km/h S 187 8,6 C 19,3 C
24.06.2018 14:55 19,1 C 49 % 1016,5 hPa 0,0 mm 1,4 km/h S 187 8,1 C 19,1 C
24.06.2018 14:54 18,9 C 46 % 1016,6 hPa 0,0 mm 1,7 km/h S-SO 167 7,0 C 18,9 C
24.06.2018 14:53 18,8 C 49 % 1016,6 hPa 0,0 mm 3,5 km/h S-SW 205 7,9 C 18,8 C
24.06.2018 14:52 18,7 C 46 % 1016,5 hPa 0,0 mm 0,3 km/h SW 220 6,8 C 18,7 C
24.06.2018 14:51 18,6 C 51 % 1016,6 hPa 0,0 mm 1,1 km/h W-SW 254 8,3 C 18,6 C
24.06.2018 14:50 18,5 C 53 % 1016,6 hPa 0,0 mm 4,8 km/h W-SW 238 8,7 C 18,5 C
24.06.2018 14:49 18,4 C 49 % 1016,6 hPa 0,0 mm 4,6 km/h W-SW 246 7,5 C 18,4 C
24.06.2018 14:48 18,4 C 47 % 1016,6 hPa 0,0 mm 1,1 km/h NW 309 6,9 C 18,4 C
24.06.2018 14:47 18,3 C 49 % 1016,7 hPa 0,0 mm 7,3 km/h NW 309 7,4 C 17,9 C
24.06.2018 14:46 18,3 C 53 % 1016,7 hPa 0,0 mm 9,3 km/h NW 306 8,6 C 17,0 C
24.06.2018 14:45 18,3 C 52 % 1016,7 hPa 0,0 mm 10,5 km/h NW 309 8,3 C 16,6 C
24.06.2018 14:44 18,3 C 54 % 1016,7 hPa 0,0 mm 6,0 km/h N 5 8,8 C 18,3 C
24.06.2018 14:43 18,3 C 55 % 1016,7 hPa 0,0 mm 7,7 km/h N 355 9,1 C 17,7 C
24.06.2018 14:42 18,3 C 51 % 1016,8 hPa 0,0 mm 9,7 km/h N 5 8,0 C 16,9 C
24.06.2018 14:41 18,3 C 51 % 1016,7 hPa 0,0 mm 11,3 km/h N-NW 333 8,0 C 16,3 C
24.06.2018 14:40 18,3 C 50 % 1016,8 hPa 0,0 mm 16,0 km/h NW 314 7,7 C 14,9 C
24.06.2018 14:39 18,3 C 51 % 1016,7 hPa 0,0 mm 13,1 km/h W-NW 295 8,0 C 15,7 C
24.06.2018 14:38 18,3 C 50 % 1016,8 hPa 0,0 mm 11,5 km/h NW 323 7,7 C 16,2 C
24.06.2018 14:37 18,4 C 51 % 1016,8 hPa 0,0 mm 14,5 km/h N-NW 328 8,1 C 15,4 C
24.06.2018 14:36 18,4 C 52 % 1016,7 hPa 0,0 mm 14,8 km/h NW 323 8,4 C 15,4 C
24.06.2018 14:35 18,5 C 52 % 1016,8 hPa 0,0 mm 14,8 km/h N-NW 338 8,5 C 15,5 C
24.06.2018 14:34 18,6 C 52 % 1016,8 hPa 0,0 mm 15,2 km/h N-NW 327 8,5 C 15,5 C
24.06.2018 14:33 18,6 C 49 % 1016,8 hPa 0,0 mm 14,4 km/h N 355 7,7 C 15,7 C
24.06.2018 14:32 18,7 C 49 % 1016,8 hPa 0,0 mm 15,4 km/h NW 321 7,8 C 15,6 C
24.06.2018 14:31 18,7 C 49 % 1016,8 hPa 0,0 mm 10,6 km/h N 350 7,8 C 17,0 C
24.06.2018 14:30 18,8 C 50 % 1016,7 hPa 0,0 mm 18,3 km/h N-NW 340 8,2 C 15,0 C
24.06.2018 14:29 18,9 C 51 % 1016,8 hPa 0,0 mm 15,2 km/h NW 317 8,5 C 15,9 C
24.06.2018 14:28 19,0 C 51 % 1016,8 hPa 0,0 mm 14,8 km/h N-NW 339 8,6 C 16,1 C
24.06.2018 14:27 19,1 C 49 % 1016,8 hPa 0,0 mm 14,3 km/h N 351 8,1 C 16,3 C
24.06.2018 14:26 19,2 C 50 % 1016,7 hPa 0,0 mm 18,0 km/h N 360 8,5 C 15,6 C
24.06.2018 14:25 19,3 C 51 % 1016,8 hPa 0,0 mm 11,4 km/h N-NW 340 8,9 C 17,4 C
24.06.2018 14:24 19,3 C 54 % 1016,8 hPa 0,0 mm 8,9 km/h N 355 9,8 C 18,3 C
24.06.2018 14:23 19,3 C 52 % 1016,7 hPa 0,0 mm 6,2 km/h NW 315 9,2 C 19,3 C
24.06.2018 14:22 19,3 C 53 % 1016,9 hPa 0,0 mm 6,9 km/h N 350 9,5 C 19,1 C
24.06.2018 14:21 19,2 C 55 % 1016,8 hPa 0,0 mm 4,7 km/h N-NW 331 9,9 C 19,2 C
24.06.2018 14:20 19,2 C 53 % 1016,8 hPa 0,0 mm 2,4 km/h SW 225 9,4 C 19,2 C
24.06.2018 14:19 19,1 C 54 % 1016,9 hPa 0,0 mm 6,0 km/h W-SW 250 9,6 C 19,1 C
24.06.2018 14:18 18,9 C 55 % 1016,9 hPa 0,0 mm 2,2 km/h W-NW 286 9,7 C 18,9 C
24.06.2018 14:17 18,7 C 57 % 1016,9 hPa 0,0 mm 5,3 km/h W 276 10,0 C 18,7 C
24.06.2018 14:16 18,5 C 55 % 1017,0 hPa 0,0 mm 0,4 km/h SW 229 9,3 C 18,5 C
24.06.2018 14:15 18,4 C 53 % 1016,9 hPa 0,0 mm 2,6 km/h N-NW 338 8,6 C 18,4 C
24.06.2018 14:14 18,4 C 52 % 1017,0 hPa 0,0 mm 6,4 km/h NW 313 8,4 C 18,4 C
24.06.2018 14:13 18,4 C 53 % 1017,0 hPa 0,0 mm 9,5 km/h W 276 8,6 C 17,1 C
24.06.2018 14:12 18,4 C 52 % 1017,0 hPa 0,0 mm 7,5 km/h N-NW 327 8,4 C 17,9 C
24.06.2018 14:11 18,4 C 55 % 1017,0 hPa 0,0 mm 5,8 km/h NW 320 9,2 C 18,4 C
24.06.2018 14:10 18,5 C 54 % 1017,0 hPa 0,0 mm 7,1 km/h N-NW 346 9,0 C 18,2 C
24.06.2018 14:09 18,5 C 55 % 1017,0 hPa 0,0 mm 8,6 km/h NW 313 9,3 C 17,5 C
24.06.2018 14:08 18,5 C 55 % 1017,0 hPa 0,0 mm 3,6 km/h N-NW 335 9,3 C 18,5 C
24.06.2018 14:07 18,5 C 57 % 1017,0 hPa 0,0 mm 4,7 km/h NW 305 9,8 C 18,5 C
24.06.2018 14:06 18,4 C 57 % 1017,0 hPa 0,0 mm 6,0 km/h NW 322 9,7 C 18,4 C
24.06.2018 14:05 18,4 C 55 % 1017,1 hPa 0,0 mm 5,4 km/h NW 313 9,2 C 18,4 C
24.06.2018 14:04 18,4 C 56 % 1017,0 hPa 0,0 mm 2,3 km/h N-NW 336 9,5 C 18,4 C
24.06.2018 14:03 18,4 C 54 % 1017,0 hPa 0,0 mm 4,8 km/h W 277 8,9 C 18,4 C
24.06.2018 14:02 18,4 C 56 % 1017,0 hPa 0,0 mm 3,3 km/h W-NW 284 9,5 C 18,4 C
24.06.2018 14:01 18,4 C 54 % 1017,0 hPa 0,0 mm 5,4 km/h W-NW 290 8,9 C 18,4 C
24.06.2018 14:00 18,4 C 54 % 1017,0 hPa 0,0 mm 6,6 km/h N-NW 335 8,9 C 18,3 C
24.06.2018 13:59 18,4 C 53 % 1017,1 hPa 0,0 mm 9,6 km/h N-NW 340 8,6 C 17,0 C
24.06.2018 13:58 18,4 C 53 % 1017,0 hPa 0,0 mm 10,1 km/h N-NW 336 8,6 C 16,8 C
24.06.2018 13:57 18,4 C 54 % 1017,0 hPa 0,0 mm 4,5 km/h NW 308 8,9 C 18,4 C
24.06.2018 13:56 18,4 C 53 % 1017,0 hPa 0,0 mm 6,6 km/h NW 313 8,6 C 18,3 C
24.06.2018 13:55 18,5 C 52 % 1017,1 hPa 0,0 mm 6,6 km/h NW 310 8,5 C 18,4 C
24.06.2018 13:54 18,5 C 54 % 1017,1 hPa 0,0 mm 6,6 km/h NW 313 9,0 C 18,4 C
24.06.2018 13:53 18,5 C 54 % 1017,0 hPa 0,0 mm 9,8 km/h W 279 9,0 C 17,1 C
24.06.2018 13:52 18,5 C 54 % 1017,1 hPa 0,0 mm 6,0 km/h W 269 9,0 C 18,5 C
24.06.2018 13:51 18,4 C 55 % 1017,1 hPa 0,0 mm 2,5 km/h N-NO 32 9,2 C 18,4 C
24.06.2018 13:50 18,4 C 54 % 1017,1 hPa 0,0 mm 2,7 km/h NO 46 8,9 C 18,4 C
24.06.2018 13:49 18,3 C 56 % 1017,1 hPa 0,0 mm 5,1 km/h N-NO 32 9,4 C 18,3 C
24.06.2018 13:48 18,3 C 57 % 1017,1 hPa 0,0 mm 5,1 km/h N-NO 24 9,6 C 18,3 C
24.06.2018 13:47 18,2 C 54 % 1017,2 hPa 0,0 mm 7,0 km/h N-NW 345 8,7 C 17,9 C
24.06.2018 13:46 18,2 C 55 % 1017,2 hPa 0,0 mm 10,1 km/h N-NW 346 9,0 C 16,6 C
24.06.2018 13:45 18,2 C 56 % 1017,2 hPa 0,0 mm 9,2 km/h N-NW 344 9,3 C 17,0 C
24.06.2018 13:44 18,2 C 54 % 1017,2 hPa 0,0 mm 5,1 km/h N 355 8,7 C 18,2 C
24.06.2018 13:43 18,2 C 56 % 1017,2 hPa 0,0 mm 2,3 km/h N 5 9,3 C 18,2 C
24.06.2018 13:42 18,1 C 60 % 1017,3 hPa 0,0 mm 6,9 km/h N 5 10,2 C 17,9 C
24.06.2018 13:41 18,0 C 57 % 1017,2 hPa 0,0 mm 5,8 km/h N-NO 20 9,4 C 18,0 C
24.06.2018 13:40 17,8 C 57 % 1017,2 hPa 0,0 mm 7,8 km/h N 5 9,2 C 17,1 C
24.06.2018 13:39 17,8 C 55 % 1017,2 hPa 0,0 mm 9,7 km/h N 5 8,6 C 16,3 C
24.06.2018 13:38 17,7 C 58 % 1017,3 hPa 0,0 mm 12,1 km/h N-NW 336 9,3 C 15,3 C
24.06.2018 13:37 17,7 C 58 % 1017,3 hPa 0,0 mm 13,3 km/h N-NW 338 9,3 C 15,0 C
24.06.2018 13:36 17,7 C 60 % 1017,3 hPa 0,0 mm 11,5 km/h N-NW 338 9,8 C 15,6 C
24.06.2018 13:35 17,6 C 59 % 1017,3 hPa 0,0 mm 12,2 km/h N 355 9,5 C 15,2 C
24.06.2018 13:34 17,6 C 56 % 1017,3 hPa 0,0 mm 13,9 km/h NW 306 8,7 C 14,7 C
24.06.2018 13:33 17,6 C 56 % 1017,3 hPa 0,0 mm 9,7 km/h N-NW 333 8,7 C 16,1 C
24.06.2018 13:32 17,6 C 58 % 1017,3 hPa 0,0 mm 8,5 km/h N-NW 345 9,2 C 16,6 C
24.06.2018 13:31 17,6 C 58 % 1017,3 hPa 0,0 mm 6,9 km/h N-NO 23 9,2 C 17,4 C
24.06.2018 13:30 17,6 C 58 % 1017,3 hPa 0,0 mm 9,1 km/h N-NO 13 9,2 C 16,4 C
24.06.2018 13:29 17,6 C 58 % 1017,4 hPa 0,0 mm 9,2 km/h NO 34 9,2 C 16,3 C
24.06.2018 13:28 17,7 C 57 % 1017,4 hPa 0,0 mm 12,2 km/h N-NO 13 9,1 C 15,3 C
24.06.2018 13:27 17,8 C 56 % 1017,3 hPa 0,0 mm 15,8 km/h N 360 8,9 C 14,4 C
24.06.2018 13:26 17,9 C 58 % 1017,3 hPa 0,0 mm 18,1 km/h N-NO 29 9,5 C 13,9 C
24.06.2018 13:25 18,0 C 57 % 1017,3 hPa 0,0 mm 15,2 km/h N 360 9,4 C 14,8 C
24.06.2018 13:24 18,1 C 57 % 1017,3 hPa 0,0 mm 12,4 km/h N-NO 23 9,4 C 15,7 C
24.06.2018 13:23 18,2 C 57 % 1017,4 hPa 0,0 mm 8,5 km/h N-NW 346 9,5 C 17,2 C
24.06.2018 13:22 18,3 C 56 % 1017,3 hPa 0,0 mm 8,5 km/h N 355 9,4 C 17,4 C
24.06.2018 13:21 18,3 C 55 % 1017,3 hPa 0,0 mm 6,6 km/h N-NW 331 9,1 C 18,2 C
24.06.2018 13:20 18,4 C 54 % 1017,3 hPa 0,0 mm 3,2 km/h N-NW 337 8,9 C 18,4 C
24.06.2018 13:19 18,5 C 54 % 1017,3 hPa 0,0 mm 2,2 km/h W-NW 286 9,0 C 18,5 C
24.06.2018 13:18 18,6 C 55 % 1017,2 hPa 0,0 mm 4,9 km/h W-NW 283 9,4 C 18,6 C
24.06.2018 13:17 18,6 C 55 % 1017,3 hPa 0,0 mm 0,1 km/h W-NW 286 9,4 C 18,6 C
24.06.2018 13:16 18,7 C 54 % 1017,2 hPa 0,0 mm 1,8 km/h W 279 9,2 C 18,7 C
24.06.2018 13:15 18,7 C 52 % 1017,2 hPa 0,0 mm 0,0 km/h W 279 8,6 C 18,7 C
24.06.2018 13:14 18,7 C 54 % 1017,2 hPa 0,0 mm 0,0 km/h N-NO 26 9,2 C 18,7 C
24.06.2018 13:13 18,7 C 52 % 1017,3 hPa 0,0 mm 0,1 km/h N-NO 26 8,6 C 18,7 C
24.06.2018 13:12 18,7 C 54 % 1017,3 hPa 0,0 mm 1,1 km/h N-NO 26 9,2 C 18,7 C
24.06.2018 13:11 18,7 C 55 % 1017,3 hPa 0,0 mm 8,0 km/h N-NO 26 9,5 C 18,0 C
24.06.2018 13:10 18,7 C 57 % 1017,3 hPa 0,0 mm 5,9 km/h W-NW 298 10,0 C 18,7 C
24.06.2018 13:09 18,6 C 57 % 1017,3 hPa 0,0 mm 10,0 km/h W-SW 256 9,9 C 17,1 C
24.06.2018 13:08 18,5 C 56 % 1017,3 hPa 0,0 mm 8,9 km/h W 277 9,6 C 17,4 C
24.06.2018 13:07 18,4 C 57 % 1017,3 hPa 0,0 mm 4,7 km/h W-SW 254 9,7 C 18,4 C
24.06.2018 13:06 18,3 C 59 % 1017,2 hPa 0,0 mm 6,7 km/h W 265 10,1 C 18,2 C
24.06.2018 13:05 18,2 C 55 % 1017,3 hPa 0,0 mm 7,0 km/h W-NW 292 9,0 C 17,9 C
24.06.2018 13:04 18,2 C 56 % 1017,3 hPa 0,0 mm 7,8 km/h W-NW 300 9,3 C 17,6 C
24.06.2018 13:03 18,3 C 56 % 1017,3 hPa 0,0 mm 7,5 km/h W 273 9,4 C 17,8 C
24.06.2018 13:02 18,3 C 55 % 1017,3 hPa 0,0 mm 7,9 km/h W-SW 247 9,1 C 17,6 C
24.06.2018 13:01 18,3 C 55 % 1017,3 hPa 0,0 mm 9,1 km/h W 264 9,1 C 17,1 C
24.06.2018 13:00 18,3 C 61 % 1017,3 hPa 0,0 mm 9,4 km/h W 271 10,6 C 17,0 C
24.06.2018 12:59 18,3 C 56 % 1017,3 hPa 0,0 mm 3,3 km/h S-SW 211 9,4 C 18,3 C
24.06.2018 12:58 18,3 C 59 % 1017,3 hPa 0,0 mm 6,3 km/h SW 218 10,1 C 18,3 C
24.06.2018 12:57 18,3 C 58 % 1017,3 hPa 0,0 mm 7,0 km/h S-SW 208 9,9 C 18,0 C
24.06.2018 12:56 18,3 C 59 % 1017,4 hPa 0,0 mm 5,8 km/h SW 215 10,1 C 18,3 C
24.06.2018 12:55 18,3 C 54 % 1017,3 hPa 0,0 mm 5,0 km/h SW 236 8,8 C 18,3 C
24.06.2018 12:54 18,3 C 58 % 1017,3 hPa 0,0 mm 7,8 km/h W 268 9,9 C 17,7 C
24.06.2018 12:53 18,2 C 57 % 1017,4 hPa 0,0 mm 9,1 km/h W-SW 246 9,5 C 17,0 C
24.06.2018 12:52 18,1 C 56 % 1017,4 hPa 0,0 mm 4,7 km/h W 263 9,2 C 18,1 C
24.06.2018 12:51 18,1 C 55 % 1017,4 hPa 0,0 mm 7,1 km/h NW 304 8,9 C 17,8 C
24.06.2018 12:50 18,1 C 57 % 1017,4 hPa 0,0 mm 10,4 km/h NW 317 9,4 C 16,4 C
24.06.2018 12:49 18,1 C 57 % 1017,4 hPa 0,0 mm 11,1 km/h SW 232 9,4 C 16,1 C
24.06.2018 12:48 18,1 C 58 % 1017,4 hPa 0,0 mm 8,9 km/h W-SW 255 9,7 C 17,0 C
24.06.2018 12:47 18,1 C 57 % 1017,4 hPa 0,0 mm 4,2 km/h W-SW 248 9,4 C 18,1 C
24.06.2018 12:46 18,1 C 56 % 1017,4 hPa 0,0 mm 4,3 km/h SW 234 9,2 C 18,1 C
24.06.2018 12:45 18,1 C 56 % 1017,4 hPa 0,0 mm 3,5 km/h W 267 9,2 C 18,1 C
24.06.2018 12:44 18,0 C 55 % 1017,4 hPa 0,0 mm 4,2 km/h W 267 8,8 C 18,0 C
24.06.2018 12:43 18,1 C 55 % 1017,4 hPa 0,0 mm 3,5 km/h W-SW 242 8,9 C 18,1 C
24.06.2018 12:42 18,1 C 59 % 1017,5 hPa 0,0 mm 7,1 km/h W 266 10,0 C 17,8 C
24.06.2018 12:41 18,0 C 61 % 1017,5 hPa 0,0 mm 7,4 km/h SW 230 10,4 C 17,5 C
24.06.2018 12:40 17,9 C 58 % 1017,5 hPa 0,0 mm 5,9 km/h SW 219 9,5 C 17,9 C
24.06.2018 12:39 17,9 C 56 % 1017,5 hPa 0,0 mm 2,2 km/h SW 223 9,0 C 17,9 C
24.06.2018 12:38 17,9 C 58 % 1017,5 hPa 0,0 mm 3,3 km/h W-SW 249 9,5 C 17,9 C
24.06.2018 12:37 17,9 C 57 % 1017,5 hPa 0,0 mm 7,2 km/h W-SW 253 9,3 C 17,5 C
24.06.2018 12:36 17,9 C 58 % 1017,6 hPa 0,0 mm 9,0 km/h W 281 9,5 C 16,7 C
24.06.2018 12:35 17,9 C 60 % 1017,5 hPa 0,0 mm 7,0 km/h W 281 10,0 C 17,6 C
24.06.2018 12:34 17,8 C 59 % 1017,5 hPa 0,0 mm 2,6 km/h W 267 9,7 C 17,8 C
24.06.2018 12:33 17,7 C 62 % 1017,5 hPa 0,0 mm 5,2 km/h S-SW 198 10,3 C 17,7 C
24.06.2018 12:32 17,6 C 66 % 1017,5 hPa 0,0 mm 7,6 km/h S-SW 204 11,2 C 17,0 C
24.06.2018 12:31 17,4 C 65 % 1017,5 hPa 0,0 mm 6,7 km/h SW 217 10,8 C 17,3 C
24.06.2018 12:30 17,3 C 64 % 1017,6 hPa 0,0 mm 5,8 km/h S-SW 206 10,4 C 17,3 C
24.06.2018 12:29 17,2 C 64 % 1017,5 hPa 0,0 mm 6,4 km/h S-SW 199 10,3 C 17,2 C
24.06.2018 12:28 17,2 C 64 % 1017,6 hPa 0,0 mm 6,2 km/h SW 234 10,3 C 17,2 C
24.06.2018 12:27 17,1 C 64 % 1017,6 hPa 0,0 mm 6,5 km/h SW 219 10,2 C 17,1 C
24.06.2018 12:26 17,1 C 62 % 1017,6 hPa 0,0 mm 6,4 km/h SW 223 9,8 C 17,1 C
24.06.2018 12:25 17,1 C 64 % 1017,6 hPa 0,0 mm 4,0 km/h S-SW 192 10,2 C 17,1 C
24.06.2018 12:24 17,1 C 60 % 1017,6 hPa 0,0 mm 6,4 km/h S-SW 213 9,3 C 17,1 C
24.06.2018 12:23 17,2 C 61 % 1017,7 hPa 0,0 mm 7,7 km/h SW 217 9,6 C 16,6 C
24.06.2018 12:22 17,2 C 60 % 1017,6 hPa 0,0 mm 10,3 km/h SW 233 9,4 C 15,4 C
24.06.2018 12:21 17,3 C 63 % 1017,6 hPa 0,0 mm 13,9 km/h SW 228 10,2 C 14,3 C
24.06.2018 12:20 17,3 C 63 % 1017,6 hPa 0,0 mm 10,3 km/h W-SW 240 10,2 C 15,5 C
24.06.2018 12:19 17,4 C 62 % 1017,6 hPa 0,0 mm 9,6 km/h SW 223 10,0 C 15,9 C
24.06.2018 12:18 17,4 C 62 % 1017,6 hPa 0,0 mm 10,6 km/h SW 232 10,0 C 15,5 C
24.06.2018 12:17 17,4 C 61 % 1017,6 hPa 0,0 mm 11,3 km/h SW 215 9,8 C 15,3 C
24.06.2018 12:16 17,4 C 62 % 1017,6 hPa 0,0 mm 11,2 km/h W-SW 246 10,0 C 15,3 C
24.06.2018 12:15 17,4 C 60 % 1017,6 hPa 0,0 mm 6,0 km/h W 262 9,6 C 17,4 C
24.06.2018 12:14 17,5 C 59 % 1017,6 hPa 0,0 mm 9,7 km/h SW 235 9,4 C 16,0 C
24.06.2018 12:13 17,6 C 60 % 1017,6 hPa 0,0 mm 11,4 km/h W-SW 250 9,7 C 15,5 C
24.06.2018 12:12 17,6 C 60 % 1017,7 hPa 0,0 mm 11,2 km/h W-SW 248 9,7 C 15,5 C
24.06.2018 12:11 17,6 C 63 % 1017,6 hPa 0,0 mm 9,6 km/h SW 222 10,5 C 16,1 C
24.06.2018 12:10 17,6 C 62 % 1017,6 hPa 0,0 mm 4,2 km/h W 259 10,2 C 17,6 C
24.06.2018 12:09 17,4 C 60 % 1017,7 hPa 0,0 mm 7,0 km/h SW 236 9,6 C 17,1 C
24.06.2018 12:08 17,4 C 61 % 1017,8 hPa 0,0 mm 8,9 km/h W-SW 252 9,8 C 16,2 C
24.06.2018 12:07 17,3 C 59 % 1017,7 hPa 0,0 mm 7,2 km/h W 279 9,2 C 16,9 C
24.06.2018 12:06 17,3 C 59 % 1017,8 hPa 0,0 mm 9,5 km/h W 259 9,2 C 15,9 C
24.06.2018 12:05 17,2 C 61 % 1017,7 hPa 0,0 mm 9,3 km/h W 259 9,6 C 15,8 C
24.06.2018 12:04 17,2 C 62 % 1017,8 hPa 0,0 mm 5,9 km/h W-SW 238 9,9 C 17,2 C
24.06.2018 12:03 17,1 C 60 % 1017,8 hPa 0,0 mm 3,0 km/h S-SW 211 9,3 C 17,1 C
24.06.2018 12:02 17,1 C 61 % 1017,8 hPa 0,0 mm 4,0 km/h S-SW 210 9,5 C 17,1 C
24.06.2018 12:01 17,1 C 61 % 1017,8 hPa 0,0 mm 5,7 km/h S-SW 210 9,5 C 17,1 C
24.06.2018 12:00 17,1 C 61 % 1017,8 hPa 0,0 mm 7,1 km/h S-SW 205 9,5 C 16,7 C
24.06.2018 11:59 17,1 C 60 % 1017,8 hPa 0,0 mm 7,5 km/h SW 221 9,3 C 16,5 C
24.06.2018 11:58 17,2 C 60 % 1017,8 hPa 0,0 mm 8,7 km/h SW 224 9,4 C 16,1 C
24.06.2018 11:57 17,2 C 58 % 1017,8 hPa 0,0 mm 9,5 km/h SW 234 8,9 C 15,8 C
24.06.2018 11:56 17,2 C 61 % 1017,8 hPa 0,0 mm 9,4 km/h W-SW 239 9,6 C 15,8 C
24.06.2018 11:55 17,2 C 59 % 1017,8 hPa 0,0 mm 10,1 km/h SW 226 9,1 C 15,5 C
24.06.2018 11:54 17,3 C 59 % 1017,8 hPa 0,0 mm 10,7 km/h W 261 9,2 C 15,4 C
24.06.2018 11:53 17,3 C 61 % 1017,8 hPa 0,0 mm 9,1 km/h SW 232 9,7 C 16,0 C
24.06.2018 11:52 17,3 C 64 % 1017,8 hPa 0,0 mm 7,2 km/h W-SW 237 10,4 C 16,9 C
24.06.2018 11:51 17,2 C 64 % 1017,8 hPa 0,0 mm 1,5 km/h W 271 10,3 C 17,2 C
24.06.2018 11:50 17,2 C 67 % 1017,8 hPa 0,0 mm 3,9 km/h W 271 11,0 C 17,2 C
24.06.2018 11:49 17,1 C 64 % 1017,8 hPa 0,0 mm 3,0 km/h S-SW 194 10,2 C 17,1 C
24.06.2018 11:48 17,1 C 66 % 1017,8 hPa 0,0 mm 2,1 km/h S 176 10,7 C 17,1 C
24.06.2018 11:47 17,0 C 64 % 1017,8 hPa 0,0 mm 7,1 km/h S-SW 192 10,1 C 16,6 C
24.06.2018 11:46 16,9 C 64 % 1017,8 hPa 0,0 mm 5,4 km/h S 182 10,0 C 16,9 C
24.06.2018 11:45 16,9 C 64 % 1017,8 hPa 0,0 mm 4,6 km/h S 182 10,0 C 16,9 C
24.06.2018 11:44 16,8 C 64 % 1017,8 hPa 0,0 mm 5,7 km/h SW 219 10,0 C 16,8 C
24.06.2018 11:43 16,8 C 63 % 1017,8 hPa 0,0 mm 4,8 km/h S-SW 211 9,7 C 16,8 C
24.06.2018 11:42 16,8 C 64 % 1017,8 hPa 0,0 mm 6,7 km/h W-SW 242 10,0 C 16,7 C
24.06.2018 11:41 16,7 C 64 % 1017,8 hPa 0,0 mm 5,2 km/h SW 236 9,9 C 16,7 C
24.06.2018 11:40 16,7 C 65 % 1017,8 hPa 0,0 mm 4,1 km/h S-SW 211 10,1 C 16,7 C
24.06.2018 11:39 16,7 C 66 % 1017,8 hPa 0,0 mm 5,2 km/h S-SW 203 10,3 C 16,7 C
24.06.2018 11:38 16,7 C 65 % 1017,9 hPa 0,0 mm 7,7 km/h SW 215 10,1 C 16,0 C
24.06.2018 11:37 16,6 C 65 % 1017,9 hPa 0,0 mm 2,8 km/h SW 219 10,0 C 16,6 C
24.06.2018 11:36 16,6 C 67 % 1017,8 hPa 0,0 mm 5,1 km/h S-SW 212 10,4 C 16,6 C
24.06.2018 11:35 16,6 C 67 % 1017,9 hPa 0,0 mm 5,1 km/h S-SW 213 10,4 C 16,6 C
24.06.2018 11:34 16,5 C 66 % 1017,9 hPa 0,0 mm 4,3 km/h S-SW 208 10,1 C 16,5 C
24.06.2018 11:33 16,5 C 66 % 1017,9 hPa 0,0 mm 4,5 km/h S-SW 205 10,1 C 16,5 C
24.06.2018 11:32 16,5 C 65 % 1017,8 hPa 0,0 mm 4,4 km/h SW 223 9,9 C 16,5 C
24.06.2018 11:31 16,4 C 65 % 1017,8 hPa 0,0 mm 2,3 km/h SW 221 9,8 C 16,4 C
24.06.2018 11:30 16,4 C 64 % 1017,8 hPa 0,0 mm 4,7 km/h S-SW 196 9,6 C 16,4 C
24.06.2018 11:29 16,4 C 66 % 1017,8 hPa 0,0 mm 4,1 km/h S 188 10,0 C 16,4 C
24.06.2018 11:28 16,4 C 66 % 1017,8 hPa 0,0 mm 1,5 km/h S 187 10,0 C 16,4 C
24.06.2018 11:27 16,4 C 66 % 1017,8 hPa 0,0 mm 1,6 km/h S-SW 207 10,0 C 16,4 C
24.06.2018 11:26 16,4 C 66 % 1017,8 hPa 0,0 mm 4,2 km/h S-SW 208 10,0 C 16,4 C
24.06.2018 11:25 16,4 C 67 % 1017,8 hPa 0,0 mm 4,8 km/h S-SW 206 10,3 C 16,4 C
24.06.2018 11:24 16,3 C 67 % 1017,8 hPa 0,0 mm 5,9 km/h S-SW 201 10,2 C 16,3 C
24.06.2018 11:23 16,3 C 67 % 1017,8 hPa 0,0 mm 6,5 km/h S-SW 204 10,2 C 16,3 C
24.06.2018 11:22 16,3 C 64 % 1017,8 hPa 0,0 mm 7,3 km/h S-SW 207 9,5 C 15,8 C
24.06.2018 11:21 16,3 C 65 % 1017,8 hPa 0,0 mm 8,0 km/h S 187 9,7 C 15,5 C
24.06.2018 11:20 16,3 C 67 % 1017,8 hPa 0,0 mm 8,5 km/h S 175 10,2 C 15,2 C
24.06.2018 11:19 16,3 C 67 % 1017,8 hPa 0,0 mm 6,9 km/h S-SW 192 10,2 C 16,0 C
24.06.2018 11:18 16,3 C 66 % 1017,8 hPa 0,0 mm 2,9 km/h S 182 9,9 C 16,3 C
24.06.2018 11:17 16,3 C 67 % 1017,8 hPa 0,0 mm 0,5 km/h S-SO 157 10,2 C 16,3 C
24.06.2018 11:16 16,4 C 67 % 1017,8 hPa 0,0 mm 2,4 km/h S-SO 156 10,3 C 16,4 C
24.06.2018 11:15 16,4 C 69 % 1017,8 hPa 0,0 mm 3,3 km/h S-SW 194 10,7 C 16,4 C
24.06.2018 11:14 16,4 C 68 % 1017,9 hPa 0,0 mm 4,3 km/h S-SW 196 10,5 C 16,4 C
24.06.2018 11:13 16,4 C 68 % 1017,8 hPa 0,0 mm 4,5 km/h S-SW 210 10,5 C 16,4 C
24.06.2018 11:12 16,4 C 69 % 1017,9 hPa 0,0 mm 6,3 km/h S-SW 199 10,7 C 16,4 C
24.06.2018 11:11 16,4 C 68 % 1017,8 hPa 0,0 mm 3,4 km/h S 180 10,5 C 16,4 C
24.06.2018 11:10 16,4 C 67 % 1017,8 hPa 0,0 mm 2,6 km/h S 185 10,3 C 16,4 C
24.06.2018 11:09 16,4 C 66 % 1017,8 hPa 0,0 mm 3,6 km/h S 177 10,0 C 16,4 C
24.06.2018 11:08 16,4 C 66 % 1017,8 hPa 0,0 mm 5,4 km/h S 187 10,0 C 16,4 C
24.06.2018 11:07 16,5 C 67 % 1017,8 hPa 0,0 mm 5,6 km/h S 181 10,4 C 16,5 C
24.06.2018 11:06 16,5 C 68 % 1017,8 hPa 0,0 mm 5,8 km/h S 190 10,6 C 16,5 C
24.06.2018 11:05 16,5 C 66 % 1017,8 hPa 0,0 mm 2,7 km/h SW 215 10,1 C 16,5 C
24.06.2018 11:04 16,5 C 66 % 1017,8 hPa 0,0 mm 1,5 km/h S-SO 165 10,1 C 16,5 C
24.06.2018 11:03 16,6 C 66 % 1017,8 hPa 0,0 mm 0,1 km/h S-SW 200 10,2 C 16,6 C
24.06.2018 11:02 16,6 C 66 % 1017,8 hPa 0,0 mm 3,2 km/h S-SW 200 10,2 C 16,6 C
24.06.2018 11:01 16,6 C 66 % 1017,8 hPa 0,0 mm 3,5 km/h S-SW 197 10,2 C 16,6 C
24.06.2018 11:00 16,6 C 67 % 1017,8 hPa 0,0 mm 0,6 km/h S-SW 196 10,4 C 16,6 C
24.06.2018 10:59 16,7 C 68 % 1017,8 hPa 0,0 mm 4,5 km/h S 171 10,8 C 16,7 C
24.06.2018 10:58 16,7 C 67 % 1017,8 hPa 0,0 mm 6,8 km/h S 187 10,5 C 16,5 C
24.06.2018 10:57 16,7 C 67 % 1017,8 hPa 0,0 mm 8,0 km/h S 190 10,5 C 15,9 C
24.06.2018 10:56 16,7 C 66 % 1017,8 hPa 0,0 mm 6,0 km/h S-SW 198 10,3 C 16,7 C
24.06.2018 10:55 16,8 C 66 % 1017,8 hPa 0,0 mm 4,2 km/h S-SW 194 10,4 C 16,8 C
24.06.2018 10:54 16,8 C 66 % 1017,8 hPa 0,0 mm 4,0 km/h S-SW 196 10,4 C 16,8 C
24.06.2018 10:53 16,8 C 67 % 1017,8 hPa 0,0 mm 0,3 km/h S-SO 165 10,6 C 16,8 C
24.06.2018 10:52 16,8 C 66 % 1017,8 hPa 0,0 mm 0,0 km/h S-SO 165 10,4 C 16,8 C
24.06.2018 10:51 16,8 C 65 % 1017,8 hPa 0,0 mm 1,7 km/h S 170 10,2 C 16,8 C
24.06.2018 10:50 16,8 C 66 % 1017,8 hPa 0,0 mm 9,3 km/h SO 145 10,4 C 15,4 C
24.06.2018 10:49 16,8 C 67 % 1017,8 hPa 0,0 mm 9,7 km/h S-SO 167 10,6 C 15,2 C
24.06.2018 10:48 16,8 C 67 % 1017,8 hPa 0,0 mm 9,3 km/h SO 143 10,6 C 15,4 C
24.06.2018 10:47 16,8 C 68 % 1017,8 hPa 0,0 mm 7,9 km/h SO 130 10,9 C 16,0 C
24.06.2018 10:46 16,8 C 68 % 1017,8 hPa 0,0 mm 3,0 km/h S-SO 148 10,9 C 16,8 C
24.06.2018 10:45 16,8 C 67 % 1017,8 hPa 0,0 mm 3,4 km/h S-SO 162 10,6 C 16,8 C
24.06.2018 10:44 16,7 C 68 % 1017,8 hPa 0,0 mm 1,9 km/h S-SO 167 10,8 C 16,7 C
24.06.2018 10:43 16,7 C 67 % 1017,9 hPa 0,0 mm 1,9 km/h S-SO 159 10,5 C 16,7 C
24.06.2018 10:42 16,7 C 68 % 1017,8 hPa 0,0 mm 4,8 km/h S 178 10,8 C 16,7 C
24.06.2018 10:41 16,7 C 68 % 1017,8 hPa 0,0 mm 5,6 km/h O-SO 114 10,8 C 16,7 C
24.06.2018 10:40 16,7 C 68 % 1017,8 hPa 0,0 mm 6,5 km/h S-SO 157 10,8 C 16,7 C
24.06.2018 10:39 16,6 C 67 % 1017,8 hPa 0,0 mm 8,9 km/h S-SO 153 10,4 C 15,4 C
24.06.2018 10:38 16,6 C 68 % 1017,8 hPa 0,0 mm 6,4 km/h S-SO 162 10,7 C 16,6 C
24.06.2018 10:37 16,6 C 68 % 1017,8 hPa 0,0 mm 6,2 km/h S 175 10,7 C 16,6 C
24.06.2018 10:36 16,6 C 67 % 1017,9 hPa 0,0 mm 7,0 km/h S 177 10,4 C 16,3 C
24.06.2018 10:35 16,6 C 66 % 1017,9 hPa 0,0 mm 3,0 km/h S-SO 167 10,2 C 16,6 C
24.06.2018 10:34 16,7 C 65 % 1017,8 hPa 0,0 mm 5,3 km/h S-SO 150 10,1 C 16,7 C
24.06.2018 10:33 16,7 C 65 % 1017,9 hPa 0,0 mm 7,1 km/h SO 141 10,1 C 16,3 C
24.06.2018 10:32 16,8 C 65 % 1017,9 hPa 0,0 mm 7,3 km/h S-SO 159 10,2 C 16,3 C
24.06.2018 10:31 16,8 C 65 % 1017,9 hPa 0,0 mm 7,7 km/h S-SO 149 10,2 C 16,1 C
24.06.2018 10:30 16,8 C 68 % 1017,9 hPa 0,0 mm 10,1 km/h S-SO 150 10,9 C 15,1 C
24.06.2018 10:29 16,9 C 66 % 1017,8 hPa 0,0 mm 8,0 km/h S-SO 149 10,5 C 16,1 C
24.06.2018 10:28 16,9 C 66 % 1017,9 hPa 0,0 mm 6,1 km/h S-SO 151 10,5 C 16,9 C
24.06.2018 10:27 16,9 C 67 % 1017,9 hPa 0,0 mm 4,0 km/h SO 143 10,7 C 16,9 C
24.06.2018 10:26 16,9 C 66 % 1017,9 hPa 0,0 mm 5,4 km/h S-SO 150 10,5 C 16,9 C
24.06.2018 10:25 16,9 C 67 % 1017,9 hPa 0,0 mm 6,5 km/h SO 142 10,7 C 16,9 C
24.06.2018 10:24 16,9 C 66 % 1017,9 hPa 0,0 mm 5,0 km/h SO 146 10,5 C 16,9 C
24.06.2018 10:23 16,9 C 67 % 1017,9 hPa 0,0 mm 0,9 km/h S 176 10,7 C 16,9 C
24.06.2018 10:22 16,8 C 70 % 1017,9 hPa 0,0 mm 5,4 km/h S 176 11,3 C 16,8 C
24.06.2018 10:21 16,8 C 67 % 1017,9 hPa 0,0 mm 3,7 km/h S-SO 153 10,6 C 16,8 C
24.06.2018 10:20 16,8 C 68 % 1017,9 hPa 0,0 mm 4,7 km/h S 171 10,9 C 16,8 C
24.06.2018 10:19 16,8 C 66 % 1017,9 hPa 0,0 mm 7,1 km/h O-SO 102 10,4 C 16,4 C
24.06.2018 10:18 16,8 C 66 % 1017,9 hPa 0,0 mm 8,2 km/h SO 144 10,4 C 15,9 C
24.06.2018 10:17 16,8 C 66 % 1017,9 hPa 0,0 mm 4,2 km/h S-SO 147 10,4 C 16,8 C
24.06.2018 10:16 16,8 C 66 % 1017,9 hPa 0,0 mm 3,2 km/h O-SO 123 10,4 C 16,8 C
24.06.2018 10:15 16,8 C 65 % 1017,9 hPa 0,0 mm 3,5 km/h O-SO 113 10,2 C 16,8 C
24.06.2018 10:14 16,8 C 67 % 1017,9 hPa 0,0 mm 2,4 km/h O-SO 121 10,6 C 16,8 C
24.06.2018 10:13 16,8 C 66 % 1017,9 hPa 0,0 mm 0,3 km/h O-SO 123 10,4 C 16,8 C
24.06.2018 10:12 16,8 C 66 % 1017,9 hPa 0,0 mm 2,2 km/h SO 131 10,4 C 16,8 C
24.06.2018 10:11 16,8 C 66 % 1017,9 hPa 0,0 mm 4,1 km/h SO 128 10,4 C 16,8 C
24.06.2018 10:10 16,8 C 66 % 1017,9 hPa 0,0 mm 2,9 km/h SO 140 10,4 C 16,8 C
24.06.2018 10:09 16,7 C 65 % 1017,8 hPa 0,0 mm 2,5 km/h SO 142 10,1 C 16,7 C
24.06.2018 10:08 16,8 C 66 % 1017,8 hPa 0,0 mm 1,6 km/h SO 142 10,4 C 16,8 C
24.06.2018 10:07 16,7 C 67 % 1017,8 hPa 0,0 mm 3,9 km/h SO 140 10,5 C 16,7 C
24.06.2018 10:06 16,7 C 67 % 1017,8 hPa 0,0 mm 1,6 km/h O-SO 121 10,5 C 16,7 C
24.06.2018 10:05 16,7 C 65 % 1017,9 hPa 0,0 mm 1,0 km/h S 180 10,1 C 16,7 C
24.06.2018 10:04 16,7 C 61 % 1017,9 hPa 0,0 mm 1,0 km/h S 182 9,1 C 16,7 C
24.06.2018 10:03 16,7 C 63 % 1017,9 hPa 0,0 mm 1,1 km/h S 182 9,6 C 16,7 C
24.06.2018 10:02 16,7 C 62 % 1017,9 hPa 0,0 mm 0,0 km/h SO 144 9,4 C 16,7 C
24.06.2018 10:01 16,7 C 63 % 1017,9 hPa 0,0 mm 0,0 km/h SO 137 9,6 C 16,7 C
24.06.2018 10:00 16,7 C 64 % 1017,9 hPa 0,0 mm 0,0 km/h SO 137 9,9 C 16,7 C
24.06.2018 09:59 16,7 C 65 % 1017,9 hPa 0,0 mm 0,0 km/h SO 137 10,1 C 16,7 C
24.06.2018 09:58 16,6 C 66 % 1017,9 hPa 0,0 mm 0,0 km/h SO 137 10,2 C 16,6 C
24.06.2018 09:57 16,6 C 66 % 1017,9 hPa 0,0 mm 0,0 km/h SO 137 10,2 C 16,6 C
24.06.2018 09:56 16,5 C 64 % 1017,9 hPa 0,0 mm 0,0 km/h SO 137 9,7 C 16,5 C
24.06.2018 09:55 16,5 C 64 % 1017,9 hPa 0,0 mm 0,0 km/h SO 137 9,7 C 16,5 C
24.06.2018 09:54 16,4 C 64 % 1017,9 hPa 0,0 mm 0,0 km/h SO 137 9,6 C 16,4 C
24.06.2018 09:53 16,4 C 64 % 1017,9 hPa 0,0 mm 0,0 km/h SO 137 9,6 C 16,4 C
24.06.2018 09:52 16,4 C 63 % 1017,9 hPa 0,0 mm 0,0 km/h SO 137 9,3 C 16,4 C
24.06.2018 09:51 16,3 C 62 % 1017,9 hPa 0,0 mm 0,1 km/h SO 137 9,0 C 16,3 C
24.06.2018 09:50 16,3 C 62 % 1017,9 hPa 0,0 mm 0,0 km/h SO 137 9,0 C 16,3 C
24.06.2018 09:49 16,3 C 63 % 1017,9 hPa 0,0 mm 0,0 km/h SO 137 9,2 C 16,3 C
24.06.2018 09:48 16,3 C 63 % 1017,9 hPa 0,0 mm 0,0 km/h SO 137 9,2 C 16,3 C
24.06.2018 09:47 16,3 C 64 % 1017,9 hPa 0,0 mm 0,0 km/h SO 137 9,5 C 16,3 C
24.06.2018 09:46 16,3 C 65 % 1017,9 hPa 0,0 mm 0,2 km/h SO 137 9,7 C 16,3 C
24.06.2018 09:45 16,3 C 65 % 1017,9 hPa 0,0 mm 0,2 km/h SO 137 9,7 C 16,3 C
24.06.2018 09:44 16,3 C 64 % 1017,9 hPa 0,0 mm 0,0 km/h SO 137 9,5 C 16,3 C
24.06.2018 09:43 16,3 C 64 % 1017,9 hPa 0,0 mm 0,0 km/h SW 232 9,5 C 16,3 C
24.06.2018 09:42 16,2 C 63 % 1017,9 hPa 0,0 mm 0,0 km/h SW 232 9,1 C 16,2 C
24.06.2018 09:41 16,2 C 64 % 1017,8 hPa 0,0 mm 0,0 km/h SW 235 9,4 C 16,2 C
24.06.2018 09:40 16,2 C 65 % 1017,9 hPa 0,0 mm 0,0 km/h SW 235 9,6 C 16,2 C
24.06.2018 09:39 16,2 C 65 % 1017,9 hPa 0,0 mm 0,4 km/h SW 235 9,6 C 16,2 C
24.06.2018 09:38 16,2 C 65 % 1017,9 hPa 0,0 mm 0,0 km/h SW 236 9,6 C 16,2 C
24.06.2018 09:37 16,2 C 64 % 1017,9 hPa 0,0 mm 0,0 km/h SW 236 9,4 C 16,2 C
24.06.2018 09:36 16,1 C 65 % 1017,9 hPa 0,0 mm 0,0 km/h SW 236 9,5 C 16,1 C
24.06.2018 09:35 16,1 C 65 % 1017,8 hPa 0,0 mm 0,0 km/h SW 236 9,5 C 16,1 C
24.06.2018 09:34 16,1 C 64 % 1017,9 hPa 0,0 mm 0,0 km/h SW 236 9,3 C 16,1 C
24.06.2018 09:33 16,0 C 63 % 1017,9 hPa 0,0 mm 0,0 km/h SW 236 9,0 C 16,0 C
24.06.2018 09:32 16,0 C 63 % 1017,9 hPa 0,0 mm 0,0 km/h SW 236 9,0 C 16,0 C
24.06.2018 09:31 15,9 C 63 % 1017,9 hPa 0,0 mm 0,0 km/h SW 236 8,9 C 15,9 C
24.06.2018 09:30 15,9 C 63 % 1018,0 hPa 0,0 mm 0,0 km/h SW 230 8,9 C 15,9 C
24.06.2018 09:29 15,9 C 62 % 1017,9 hPa 0,0 mm 0,0 km/h SW 230 8,6 C 15,9 C
24.06.2018 09:28 15,9 C 62 % 1017,9 hPa 0,0 mm 0,2 km/h SW 230 8,6 C 15,9 C
24.06.2018 09:27 15,8 C 63 % 1018,0 hPa 0,0 mm 0,0 km/h SW 232 8,8 C 15,8 C
24.06.2018 09:26 15,8 C 62 % 1017,9 hPa 0,0 mm 0,0 km/h SW 232 8,5 C 15,8 C
24.06.2018 09:25 15,8 C 61 % 1017,9 hPa 0,0 mm 0,0 km/h SW 232 8,3 C 15,8 C
24.06.2018 09:24 15,8 C 61 % 1017,9 hPa 0,0 mm 0,0 km/h SW 232 8,3 C 15,8 C
24.06.2018 09:23 15,8 C 61 % 1017,9 hPa 0,0 mm 0,0 km/h SW 232 8,3 C 15,8 C
24.06.2018 09:22 15,8 C 62 % 1017,9 hPa 0,0 mm 0,0 km/h SW 232 8,5 C 15,8 C
24.06.2018 09:21 15,7 C 61 % 1017,9 hPa 0,0 mm 0,0 km/h SW 232 8,2 C 15,7 C
24.06.2018 09:20 15,7 C 62 % 1017,9 hPa 0,0 mm 0,0 km/h SW 232 8,4 C 15,7 C
24.06.2018 09:19 15,7 C 63 % 1017,9 hPa 0,0 mm 0,2 km/h SW 232 8,7 C 15,7 C
24.06.2018 09:18 15,7 C 64 % 1017,9 hPa 0,0 mm 2,5 km/h SW 231 8,9 C 15,7 C
24.06.2018 09:17 15,7 C 64 % 1018,0 hPa 0,0 mm 3,4 km/h SW 230 8,9 C 15,7 C
24.06.2018 09:16 15,7 C 64 % 1018,0 hPa 0,0 mm 3,9 km/h SW 225 8,9 C 15,7 C
24.06.2018 09:15 15,7 C 65 % 1018,0 hPa 0,0 mm 3,6 km/h SW 223 9,1 C 15,7 C
24.06.2018 09:14 15,7 C 65 % 1018,0 hPa 0,0 mm 3,4 km/h W 259 9,1 C 15,7 C
24.06.2018 09:13 15,7 C 65 % 1018,1 hPa 0,0 mm 2,5 km/h W 273 9,1 C 15,7 C
24.06.2018 09:12 15,6 C 65 % 1018,1 hPa 0,0 mm 1,2 km/h W 275 9,0 C 15,6 C
24.06.2018 09:11 15,6 C 63 % 1018,0 hPa 0,0 mm 0,3 km/h W 275 8,6 C 15,6 C
24.06.2018 09:10 15,6 C 63 % 1018,0 hPa 0,0 mm 0,0 km/h W 279 8,6 C 15,6 C
24.06.2018 09:09 15,6 C 62 % 1018,1 hPa 0,0 mm 0,0 km/h W 279 8,3 C 15,6 C
24.06.2018 09:08 15,6 C 63 % 1018,0 hPa 0,0 mm 1,4 km/h W 279 8,6 C 15,6 C
24.06.2018 09:07 15,5 C 63 % 1018,0 hPa 0,0 mm 1,1 km/h W 279 8,5 C 15,5 C
24.06.2018 09:06 15,5 C 62 % 1018,0 hPa 0,0 mm 0,0 km/h NW 312 8,3 C 15,5 C
24.06.2018 09:05 15,5 C 63 % 1018,0 hPa 0,0 mm 0,0 km/h NW 312 8,5 C 15,5 C
24.06.2018 09:04 15,4 C 63 % 1018,1 hPa 0,0 mm 0,0 km/h NW 312 8,4 C 15,4 C
24.06.2018 09:03 15,4 C 65 % 1018,1 hPa 0,0 mm 0,0 km/h NW 312 8,9 C 15,4 C
24.06.2018 09:02 15,3 C 63 % 1018,1 hPa 0,0 mm 0,0 km/h NW 312 8,3 C 15,3 C
24.06.2018 09:01 15,3 C 63 % 1018,1 hPa 0,0 mm 0,0 km/h NW 313 8,3 C 15,3 C
24.06.2018 09:00 15,3 C 62 % 1018,1 hPa 0,0 mm 0,0 km/h NW 313 8,1 C 15,3 C
24.06.2018 08:59 15,3 C 62 % 1018,1 hPa 0,0 mm 0,0 km/h NW 313 8,1 C 15,3 C
24.06.2018 08:58 15,2 C 62 % 1018,1 hPa 0,0 mm 0,0 km/h NW 313 8,0 C 15,2 C
24.06.2018 08:57 15,2 C 62 % 1018,1 hPa 0,0 mm 0,0 km/h NW 313 8,0 C 15,2 C
24.06.2018 08:56 15,2 C 64 % 1018,1 hPa 0,0 mm 0,0 km/h NW 313 8,4 C 15,2 C
24.06.2018 08:55 15,2 C 63 % 1018,1 hPa 0,0 mm 0,0 km/h NW 313 8,2 C 15,2 C
24.06.2018 08:54 15,2 C 64 % 1018,1 hPa 0,0 mm 2,0 km/h NW 313 8,4 C 15,2 C
24.06.2018 08:53 15,1 C 64 % 1018,2 hPa 0,0 mm 2,6 km/h NW 313 8,3 C 15,1 C
24.06.2018 08:52 15,1 C 64 % 1018,1 hPa 0,0 mm 4,2 km/h NW 311 8,3 C 15,1 C
24.06.2018 08:51 15,1 C 64 % 1018,2 hPa 0,0 mm 5,8 km/h NW 311 8,3 C 15,1 C
24.06.2018 08:50 15,1 C 65 % 1018,1 hPa 0,0 mm 7,4 km/h NW 311 8,6 C 14,5 C
24.06.2018 08:49 15,1 C 64 % 1018,1 hPa 0,0 mm 5,4 km/h NW 311 8,3 C 15,1 C
24.06.2018 08:45 15,0 C 66 % 1018,1 hPa 0,0 mm 4,8 km/h NW 315 8,7 C 15,0 C
24.06.2018 08:40 14,9 C 68 % 1018,0 hPa 0,0 mm 1,6 km/h W 270 9,0 C 14,9 C
24.06.2018 08:35 14,9 C 69 % 1018,0 hPa 0,0 mm 0,0 km/h S-SW 202 9,3 C 14,9 C
24.06.2018 08:30 14,8 C 69 % 1018,0 hPa 0,0 mm 1,6 km/h S 180 9,2 C 14,8 C
24.06.2018 08:25 14,8 C 69 % 1018,0 hPa 0,0 mm 1,6 km/h S-SW 202 9,2 C 14,8 C
24.06.2018 08:20 14,7 C 66 % 1017,9 hPa 0,0 mm 6,4 km/h NW 315 8,4 C 14,7 C
24.06.2018 08:15 14,6 C 66 % 1017,9 hPa 0,0 mm 11,3 km/h N-NW 337 8,3 C 12,1 C
24.06.2018 08:10 14,6 C 67 % 1017,9 hPa 0,0 mm 11,3 km/h N-NW 337 8,5 C 12,1 C
24.06.2018 08:05 14,6 C 68 % 1017,9 hPa 0,0 mm 9,7 km/h NW 315 8,8 C 12,8 C
24.06.2018 08:00 14,6 C 67 % 1018,0 hPa 0,0 mm 6,4 km/h N-NW 337 8,5 C 14,6 C
24.06.2018 07:55 14,6 C 69 % 1017,9 hPa 0,0 mm 4,8 km/h NW 315 9,0 C 14,6 C
24.06.2018 07:50 14,6 C 69 % 1018,0 hPa 0,0 mm 6,4 km/h N 360 9,0 C 14,6 C
24.06.2018 07:45 14,6 C 67 % 1018,0 hPa 0,0 mm 4,8 km/h N-NW 337 8,5 C 14,6 C
24.06.2018 07:40 14,5 C 67 % 1018,0 hPa 0,0 mm 8,0 km/h N-NW 337 8,4 C 13,6 C
24.06.2018 07:35 14,4 C 67 % 1018,0 hPa 0,0 mm 3,2 km/h NW 315 8,4 C 14,4 C
24.06.2018 07:30 14,2 C 69 % 1017,9 hPa 0,0 mm 3,2 km/h NW 315 8,6 C 14,2 C
24.06.2018 07:25 14,1 C 70 % 1017,9 hPa 0,0 mm 6,4 km/h NW 315 8,7 C 14,1 C
24.06.2018 07:20 13,9 C 71 % 1018,0 hPa 0,0 mm 6,4 km/h NW 315 8,7 C 13,9 C
24.06.2018 07:15 13,8 C 72 % 1017,9 hPa 0,0 mm 4,8 km/h N-NW 337 8,8 C 13,8 C
24.06.2018 07:10 13,7 C 71 % 1017,9 hPa 0,0 mm 6,4 km/h N 360 8,5 C 13,7 C
24.06.2018 07:05 13,6 C 70 % 1017,8 hPa 0,0 mm 4,8 km/h NW 315 8,2 C 13,6 C
24.06.2018 07:00 13,6 C 70 % 1017,9 hPa 0,0 mm 4,8 km/h NW 315 8,2 C 13,6 C
24.06.2018 06:55 13,6 C 69 % 1018,0 hPa 0,0 mm 9,7 km/h NW 315 8,0 C 11,7 C
24.06.2018 06:50 13,6 C 69 % 1018,0 hPa 0,0 mm 9,7 km/h NW 315 8,0 C 11,7 C
24.06.2018 06:45 13,5 C 69 % 1017,9 hPa 0,0 mm 9,7 km/h NW 315 7,9 C 11,6 C
24.06.2018 06:40 13,4 C 69 % 1017,8 hPa 0,0 mm 6,4 km/h NW 315 7,8 C 13,4 C
24.06.2018 06:35 13,3 C 70 % 1017,9 hPa 0,0 mm 6,4 km/h NW 315 7,9 C 13,3 C
24.06.2018 06:30 13,2 C 69 % 1017,8 hPa 0,0 mm 8,0 km/h NW 315 7,6 C 12,2 C
24.06.2018 06:25 13,2 C 70 % 1017,8 hPa 0,0 mm 8,0 km/h NW 315 7,9 C 12,2 C
24.06.2018 06:20 13,2 C 69 % 1017,8 hPa 0,0 mm 9,7 km/h N-NW 337 7,6 C 11,3 C
24.06.2018 06:15 13,1 C 69 % 1017,8 hPa 0,0 mm 12,9 km/h NW 315 7,5 C 9,7 C
24.06.2018 06:10 13,0 C 69 % 1017,8 hPa 0,0 mm 11,3 km/h NW 315 7,4 C 10,3 C
24.06.2018 06:05 12,8 C 71 % 1017,8 hPa 0,0 mm 11,3 km/h N-NW 337 7,7 C 10,1 C
24.06.2018 06:00 12,8 C 70 % 1017,8 hPa 0,0 mm 9,7 km/h N-NW 337 7,5 C 10,8 C
24.06.2018 05:55 12,8 C 70 % 1017,9 hPa 0,0 mm 11,3 km/h N-NW 337 7,5 C 10,1 C
24.06.2018 05:50 12,6 C 70 % 1017,8 hPa 0,0 mm 11,3 km/h NW 315 7,3 C 9,8 C
24.06.2018 05:45 12,6 C 71 % 1017,8 hPa 0,0 mm 9,7 km/h NW 315 7,5 C 10,6 C
24.06.2018 05:40 12,7 C 71 % 1017,6 hPa 0,0 mm 9,7 km/h N-NW 337 7,6 C 10,7 C
24.06.2018 05:35 12,8 C 70 % 1017,6 hPa 0,0 mm 12,9 km/h N-NW 337 7,5 C 9,4 C
24.06.2018 05:30 12,7 C 69 % 1017,5 hPa 0,0 mm 14,5 km/h N 360 7,2 C 8,6 C
24.06.2018 05:25 12,4 C 71 % 1017,7 hPa 0,0 mm 12,9 km/h N 360 7,3 C 8,9 C
24.06.2018 05:20 12,6 C 73 % 1017,7 hPa 0,0 mm 9,7 km/h N-NO 22 7,9 C 10,6 C
24.06.2018 05:15 12,7 C 71 % 1017,6 hPa 0,0 mm 9,7 km/h NW 315 7,6 C 10,7 C
24.06.2018 05:10 12,7 C 70 % 1017,6 hPa 0,0 mm 6,4 km/h NW 315 7,4 C 12,7 C
24.06.2018 05:05 12,8 C 72 % 1017,7 hPa 0,0 mm 6,4 km/h N-NW 337 7,9 C 12,8 C
24.06.2018 05:00 12,8 C 69 % 1017,8 hPa 0,0 mm 6,4 km/h NW 315 7,3 C 12,8 C
24.06.2018 04:55 12,8 C 68 % 1017,8 hPa 0,0 mm 6,4 km/h NW 315 7,0 C 12,8 C
24.06.2018 04:50 12,7 C 69 % 1017,7 hPa 0,0 mm 4,8 km/h NW 315 7,2 C 12,7 C
24.06.2018 04:45 12,6 C 69 % 1017,9 hPa 0,0 mm 3,2 km/h W-NW 292 7,1 C 12,6 C
24.06.2018 04:40 12,2 C 70 % 1017,9 hPa 0,0 mm 8,0 km/h NW 315 6,9 C 11,2 C
24.06.2018 04:35 11,9 C 75 % 1017,9 hPa 0,0 mm 6,4 km/h N-NW 337 7,6 C 11,9 C
24.06.2018 04:30 11,9 C 77 % 1017,9 hPa 0,0 mm 4,8 km/h N-NW 337 8,0 C 11,9 C
24.06.2018 04:25 12,1 C 79 % 1017,8 hPa 0,0 mm 1,6 km/h NW 315 8,6 C 12,1 C
24.06.2018 04:20 12,2 C 78 % 1017,9 hPa 0,0 mm 0,0 km/h N 0 8,5 C 12,2 C
24.06.2018 04:15 12,2 C 74 % 1017,9 hPa 0,0 mm 1,6 km/h NW 315 7,7 C 12,2 C
24.06.2018 04:10 12,1 C 72 % 1018,0 hPa 0,0 mm 3,2 km/h W-NW 292 7,2 C 12,1 C
24.06.2018 04:05 12,2 C 74 % 1018,0 hPa 0,0 mm 1,6 km/h W-NW 292 7,7 C 12,2 C
24.06.2018 04:00 12,3 C 75 % 1018,1 hPa 0,0 mm 0,0 km/h N 0 8,0 C 12,3 C
24.06.2018 03:55 12,3 C 73 % 1018,1 hPa 0,0 mm 0,0 km/h NW 315 7,6 C 12,3 C
24.06.2018 03:50 12,3 C 72 % 1018,2 hPa 0,0 mm 4,8 km/h NW 315 7,4 C 12,3 C
24.06.2018 03:45 12,4 C 71 % 1018,2 hPa 0,0 mm 4,8 km/h W-NW 292 7,3 C 12,4 C
24.06.2018 03:40 12,5 C 70 % 1018,3 hPa 0,0 mm 3,2 km/h W-NW 292 7,2 C 12,5 C
24.06.2018 03:35 12,6 C 70 % 1018,3 hPa 0,0 mm 3,2 km/h W-NW 292 7,3 C 12,6 C
24.06.2018 03:30 12,8 C 72 % 1018,3 hPa 0,0 mm 3,2 km/h NW 315 7,9 C 12,8 C
24.06.2018 03:25 12,9 C 70 % 1018,4 hPa 0,0 mm 4,8 km/h NW 315 7,6 C 12,9 C
24.06.2018 03:20 13,0 C 67 % 1018,4 hPa 0,0 mm 6,4 km/h NW 315 7,0 C 13,0 C
24.06.2018 03:15 13,1 C 67 % 1018,4 hPa 0,0 mm 6,4 km/h N-NW 337 7,1 C 13,1 C
24.06.2018 03:10 13,1 C 66 % 1018,5 hPa 0,0 mm 8,0 km/h NW 315 6,9 C 12,1 C
24.06.2018 03:05 13,1 C 67 % 1018,5 hPa 0,0 mm 8,0 km/h N-NW 337 7,1 C 12,1 C
24.06.2018 03:00 13,2 C 67 % 1018,5 hPa 0,0 mm 8,0 km/h N-NW 337 7,2 C 12,2 C
24.06.2018 02:55 13,3 C 66 % 1018,7 hPa 0,0 mm 6,4 km/h N-NW 337 7,1 C 13,3 C
24.06.2018 02:50 13,4 C 65 % 1018,6 hPa 0,0 mm 6,4 km/h NW 315 7,0 C 13,4 C
24.06.2018 02:45 13,6 C 63 % 1018,7 hPa 0,0 mm 6,4 km/h NW 315 6,7 C 13,6 C
24.06.2018 02:40 13,8 C 62 % 1018,7 hPa 0,0 mm 6,4 km/h NW 315 6,6 C 13,8 C
24.06.2018 02:35 13,9 C 61 % 1018,8 hPa 0,0 mm 6,4 km/h NW 315 6,5 C 13,9 C
24.06.2018 02:30 14,1 C 61 % 1018,8 hPa 0,0 mm 6,4 km/h NW 315 6,7 C 14,1 C
24.06.2018 02:25 14,1 C 59 % 1018,8 hPa 0,0 mm 8,0 km/h NW 315 6,2 C 13,2 C
24.06.2018 02:20 14,1 C 59 % 1018,8 hPa 0,0 mm 9,7 km/h NW 315 6,2 C 12,3 C
24.06.2018 02:15 14,0 C 59 % 1018,9 hPa 0,0 mm 9,7 km/h NW 315 6,1 C 12,2 C
24.06.2018 02:10 14,0 C 60 % 1018,8 hPa 0,0 mm 9,7 km/h NW 315 6,4 C 12,2 C
24.06.2018 02:05 14,1 C 60 % 1018,8 hPa 0,0 mm 8,0 km/h NW 315 6,5 C 13,2 C
24.06.2018 02:00 14,2 C 60 % 1018,8 hPa 0,0 mm 6,4 km/h NW 315 6,5 C 14,2 C
24.06.2018 01:55 14,3 C 59 % 1018,7 hPa 0,0 mm 8,0 km/h NW 315 6,4 C 13,4 C
24.06.2018 01:50 14,3 C 59 % 1018,7 hPa 0,0 mm 9,7 km/h NW 315 6,4 C 12,5 C
24.06.2018 01:45 14,3 C 58 % 1018,8 hPa 0,0 mm 11,3 km/h NW 315 6,2 C 11,8 C
24.06.2018 01:40 14,3 C 59 % 1018,8 hPa 0,0 mm 12,9 km/h W-NW 292 6,4 C 11,1 C
24.06.2018 01:35 14,4 C 59 % 1018,9 hPa 0,0 mm 12,9 km/h NW 315 6,5 C 11,2 C
24.06.2018 01:30 14,6 C 58 % 1018,9 hPa 0,0 mm 12,9 km/h NW 315 6,4 C 11,5 C
24.06.2018 01:25 14,5 C 58 % 1018,9 hPa 0,0 mm 12,9 km/h NW 315 6,3 C 11,3 C
24.06.2018 01:20 14,4 C 59 % 1018,9 hPa 0,0 mm 11,3 km/h NW 315 6,5 C 11,9 C
24.06.2018 01:15 14,4 C 59 % 1018,9 hPa 0,0 mm 11,3 km/h NW 315 6,5 C 11,9 C
24.06.2018 01:10 14,3 C 60 % 1019,0 hPa 0,0 mm 11,3 km/h NW 315 6,6 C 11,8 C
24.06.2018 01:05 14,3 C 59 % 1019,0 hPa 0,0 mm 12,9 km/h N-NW 337 6,4 C 11,1 C
24.06.2018 01:00 14,3 C 62 % 1019,1 hPa 0,0 mm 8,0 km/h NW 315 7,1 C 13,4 C
24.06.2018 00:55 14,3 C 60 % 1019,2 hPa 0,0 mm 6,4 km/h NW 315 6,6 C 14,3 C
24.06.2018 00:50 14,3 C 59 % 1019,2 hPa 0,0 mm 4,8 km/h NW 315 6,4 C 14,3 C
24.06.2018 00:45 14,2 C 60 % 1019,2 hPa 0,0 mm 6,4 km/h NW 315 6,5 C 14,2 C
24.06.2018 00:40 14,3 C 61 % 1019,2 hPa 0,0 mm 6,4 km/h NW 315 6,9 C 14,3 C
24.06.2018 00:35 14,5 C 60 % 1019,1 hPa 0,0 mm 6,4 km/h N-NW 337 6,8 C 14,5 C
24.06.2018 00:30 14,6 C 60 % 1019,1 hPa 0,0 mm 6,4 km/h NW 315 6,9 C 14,6 C
24.06.2018 00:25 14,6 C 57 % 1019,0 hPa 0,0 mm 6,4 km/h NW 315 6,2 C 14,6 C
24.06.2018 00:20 14,6 C 58 % 1019,0 hPa 0,0 mm 8,0 km/h NW 315 6,4 C 13,7 C
24.06.2018 00:15 14,6 C 58 % 1019,1 hPa 0,0 mm 4,8 km/h W-NW 292 6,4 C 14,6 C
24.06.2018 00:10 14,6 C 59 % 1019,1 hPa 0,0 mm 3,2 km/h NW 315 6,7 C 14,6 C
24.06.2018 00:05 14,6 C 58 % 1019,1 hPa 0,0 mm 4,8 km/h W-NW 292 6,4 C 14,6 C
24.06.2018 00:00 14,6 C 60 % 1019,1 hPa 0,0 mm 4,8 km/h W-NW 292 6,9 C 14,6 C
_ Min-Zeit 04:30 15:40 18:49 - 03:55 - - 02:15 05:30
Minimum _ 11,9 C 40 % 1015,6 hPa - 0,0 km/h - - 6,1 C 8,6 C
_ Max-Zeit 15:50 04:25 00:40 00:00 16:54 - - 10:22 15:50
Maximum _ 20,8 C 79 % 1019,2 hPa 0,0 mm 21,0 km/h
N-NW
- - 11,3 C 20,8 C
Durchschnitt _ 16,0 C 61 % 1017,4 hPa #0,0 mm 6,1 km/h NW - 8,4 C 15,3 C